GFSNW_250_spd_000.txt.gz
Wind_Speed
50 44 45 44 42 40 35 33 32 29 29 28 28 23 19 16 19 18 14 11 9 9 9 7 7 5 4 3 4 5 7 9 10 13 15 16 17 18 23 26 29 32 37 41
53 48 46 45 43 42 38 34 32 30 30 31 29 23 21 18 19 18 14 11 10 10 9 9 7 7 7 8 9 11 13 16 17 18 21 25 26 29 30 35 36 37 38 43
57 50 49 45 44 40 38 37 33 30 31 31 31 27 24 23 20 16 14 13 13 14 13 11 11 11 11 12 14 16 19 21 22 23 24 25 28 31 33 34 40 44 38 42
56 51 51 47 44 39 37 36 34 33 34 33 33 30 26 24 23 20 16 15 16 18 17 16 16 16 15 15 18 20 22 25 26 27 29 32 34 35 36 40 42 42 45 44
57 52 49 49 44 39 36 37 37 38 38 34 33 32 30 28 25 23 20 19 20 22 22 22 21 21 19 19 20 23 26 28 32 33 34 36 38 40 42 45 47 45 46 48
58 56 52 51 46 41 37 38 40 39 38 37 33 33 32 31 29 26 24 23 23 26 26 25 25 24 24 25 26 28 31 34 37 40 42 42 43 44 47 50 50 49 50 50
62 60 57 53 50 45 42 37 36 38 40 40 37 32 31 30 28 27 26 25 27 27 28 29 30 29 30 30 32 34 36 40 41 43 46 50 49 50 50 49 51 53 51 51
63 64 61 58 56 50 46 40 35 39 41 39 39 38 35 36 36 32 33 31 30 31 32 33 33 33 34 36 39 42 44 46 47 48 49 53 53 50 55 51 54 54 54 53
63 65 65 62 58 54 52 47 41 38 36 39 39 34 35 34 33 35 34 34 34 34 36 38 38 39 41 44 46 47 47 49 52 53 53 54 55 54 56 54 57 55 57 58
59 63 65 64 61 58 53 53 48 45 42 38 35 32 34 34 34 30 32 33 36 40 42 41 39 39 41 43 47 51 52 54 55 54 55 56 57 58 62 60 61 61 61 61
57 61 62 68 64 60 58 54 52 51 49 48 40 37 34 35 33 36 36 38 37 38 39 41 44 46 49 52 54 58 60 64 62 61 62 60 59 60 63 65 63 62 62 66
59 60 61 62 67 67 62 60 58 56 55 54 53 49 44 44 42 41 44 41 46 47 49 52 53 55 58 60 62 65 69 70 64 63 64 66 63 62 64 65 64 64 66 73
63 62 61 63 63 66 66 65 61 59 56 57 50 51 52 50 47 48 47 50 52 55 58 58 60 63 64 66 68 73 69 68 63 60 63 64 66 64 61 65 66 68 71 77
63 66 64 64 61 62 63 63 61 59 61 59 57 57 54 56 56 55 54 54 57 60 64 65 68 70 69 69 71 69 70 68 67 62 62 64 62 65 66 68 72 76 80 84
62 62 66 65 64 63 65 66 66 64 65 64 66 64 65 65 65 64 64 63 65 66 68 70 72 71 74 71 68 67 72 68 66 61 60 65 65 66 70 76 80 84 88 91
65 62 60 61 66 67 67 62 61 63 65 67 69 69 69 69 67 67 68 69 68 67 70 73 73 74 78 69 60 65 69 68 67 66 64 65 70 74 78 81 87 90 92 97
66 65 63 61 62 65 68 67 69 70 70 68 67 66 67 66 66 67 71 71 72 74 74 72 75 79 74 62 59 69 69 69 68 70 71 72 77 81 83 88 92 95 99 104
69 65 63 61 59 59 58 61 68 72 73 75 71 67 70 73 71 72 73 74 78 78 79 77 75 70 67 59 69 69 74 74 72 73 77 80 83 88 92 94 97 102 105 105
76 74 69 64 61 59 62 65 65 64 62 63 63 67 73 77 78 79 78 78 78 74 70 69 67 62 62 71 75 79 78 79 77 79 83 87 92 96 100 103 105 104 106 108
84 79 76 73 70 70 70 68 68 67 65 58 55 57 58 62 66 70 71 70 69 65 64 70 68 64 71 80 83 85 83 83 86 87 91 95 98 102 105 108 107 109 111 116
88 88 81 78 80 79 77 76 74 70 65 62 60 62 63 64 68 73 76 76 76 73 70 75 72 70 77 85 88 89 89 90 91 95 98 101 104 106 109 110 112 116 119 121
95 90 90 88 86 87 86 83 78 71 70 67 66 68 72 74 75 78 78 79 79 77 77 80 77 80 81 85 89 91 93 95 100 102 105 107 107 110 113 116 118 120 121 121
93 98 93 96 95 98 97 91 85 82 76 75 78 79 81 80 80 82 83 85 84 84 84 84 86 89 91 93 95 97 98 103 103 105 107 110 114 115 119 119 120 120 120 119
91 95 98 99 104 105 101 97 92 88 86 84 84 87 88 87 89 91 93 94 93 93 92 92 94 97 98 98 99 100 103 106 109 112 113 115 117 121 119 119 117 115 114 113
94 96 98 98 99 102 105 106 103 101 97 94 95 95 95 95 97 97 98 100 100 100 101 102 103 105 105 106 107 109 109 113 118 119 120 122 121 119 118 117 114 113 114 115
97 96 95 96 96 96 101 106 106 107 108 104 103 104 104 103 103 105 105 107 107 108 109 109 109 110 110 112 113 114 119 121 121 119 116 114 115 114 112 112 114 116 113 111
93 94 97 98 98 98 98 99 101 103 103 105 108 108 107 108 110 111 112 113 115 116 113 111 111 112 113 117 120 121 119 114 112 113 111 108 109 112 114 114 111 109 106 101

GFSNW_250_spd_003.txt.gz
Wind_Speed
53 50 49 41 44 40 39 37 36 30 29 27 29 27 23 20 19 17 14 13 13 12 11 11 10 9 7 5 4 4 4 5 8 10 10 13 16 17 18 21 25 29 33 35
56 51 46 45 45 42 40 38 37 31 29 27 28 26 24 20 18 17 14 14 13 12 12 10 9 8 8 7 7 7 7 10 14 17 19 19 19 23 28 31 32 30 36 40
59 53 47 43 46 44 42 38 35 29 29 29 29 28 26 21 18 17 17 16 13 12 11 10 10 10 10 10 11 11 12 15 17 19 21 23 24 27 27 29 33 40 39 43
61 57 49 45 50 45 41 39 37 34 32 32 34 31 27 24 20 18 18 15 14 14 13 14 14 13 12 13 15 15 17 19 20 22 25 28 30 33 34 35 37 40 45 46
62 58 49 45 49 46 45 40 36 33 32 29 32 32 29 25 24 22 20 16 15 16 18 21 20 17 16 17 18 19 22 24 25 28 31 34 36 38 40 42 44 48 48 50
60 59 50 47 49 47 44 40 41 37 36 31 33 35 33 29 28 22 21 21 21 24 23 20 22 21 20 20 23 24 26 28 31 35 38 40 42 46 48 50 50 50 51 52
58 61 52 49 50 45 46 46 39 36 34 32 35 37 34 31 29 25 25 25 26 26 22 24 23 23 24 25 27 28 30 33 37 40 41 41 42 47 51 52 53 56 56 56
58 63 56 51 51 51 49 42 36 35 37 36 35 36 34 31 29 25 28 29 27 27 27 27 27 27 27 28 30 32 36 37 38 39 44 48 49 54 60 58 59 61 61 61
58 61 59 54 53 52 47 42 42 38 33 33 34 36 34 31 31 30 29 31 32 33 33 31 30 31 33 34 35 35 33 37 44 47 52 56 56 61 62 59 60 62 64 64
58 60 58 58 53 52 50 47 44 40 36 31 32 33 36 39 37 36 34 33 31 31 32 33 34 35 34 31 35 40 43 46 51 54 57 61 63 60 59 58 58 61 61 61
56 58 59 58 59 57 54 52 49 46 44 38 32 30 35 36 37 36 33 32 32 33 33 34 36 38 39 41 45 49 50 54 59 61 63 63 62 59 60 59 58 59 59 59
56 57 55 58 59 60 59 56 54 54 51 48 42 39 37 34 34 38 37 33 36 36 38 40 43 43 47 50 52 57 58 62 65 67 68 67 60 61 60 58 59 58 59 62
55 54 57 57 59 59 62 61 58 56 55 53 50 46 47 44 43 44 44 44 45 45 45 44 46 50 53 55 59 63 65 69 71 69 69 71 63 58 57 60 61 61 64 70
59 56 54 56 58 60 61 62 64 60 58 56 52 52 53 51 50 51 52 53 52 52 53 53 54 55 56 58 62 66 72 76 76 71 73 71 68 62 61 63 64 67 72 77
59 59 56 54 54 57 61 61 60 63 62 60 60 58 57 56 55 54 55 54 55 58 59 61 63 64 67 66 66 68 74 77 78 75 76 75 69 68 70 71 72 75 79 83
60 57 58 58 57 56 54 56 60 62 63 62 63 63 62 59 59 59 59 61 64 66 67 68 68 71 70 64 64 71 75 79 82 79 77 73 71 73 75 77 80 83 86 89
61 59 57 58 60 59 58 57 59 60 60 61 62 63 61 60 61 61 65 67 70 72 71 69 69 69 69 68 64 74 78 82 83 81 76 72 75 79 81 83 87 90 92 95
66 63 60 59 57 58 61 63 66 65 63 60 56 57 61 63 62 65 68 70 70 70 68 67 73 74 73 67 75 79 81 82 79 74 76 77 79 82 84 87 91 93 97 101
74 70 67 64 61 62 64 63 63 65 66 62 61 65 68 70 70 71 72 74 77 75 75 78 78 72 72 77 78 74 71 73 75 79 81 82 85 88 89 93 96 100 102 105
80 77 74 70 69 68 68 67 67 64 63 59 58 63 65 70 74 76 78 79 79 77 75 78 73 67 72 76 76 76 78 79 81 82 85 87 89 92 95 99 102 105 107 111
86 83 81 78 77 75 74 72 68 66 64 62 59 62 64 66 70 74 76 75 75 73 72 72 68 66 73 76 81 82 83 84 85 88 89 92 95 97 101 105 108 110 113 117
85 89 88 86 87 86 84 77 74 71 68 64 65 69 70 71 73 76 76 77 78 76 75 76 73 73 76 80 83 83 86 88 92 94 96 98 101 105 108 111 114 116 119 121
92 89 90 93 93 93 92 87 82 79 77 76 77 78 80 80 80 81 82 83 83 81 80 79 81 83 85 86 86 88 92 96 97 100 104 106 109 111 114 118 120 120 123 125
83 92 97 98 96 96 97 94 91 90 88 87 85 85 86 86 87 88 89 92 91 90 89 87 89 92 94 94 95 97 100 103 106 107 110 113 116 119 122 124 123 123 114 112
75 85 89 92 97 101 101 100 98 98 96 95 95 96 96 95 97 97 98 99 101 101 101 99 98 98 101 103 105 107 109 111 114 117 119 123 124 124 125 123 114 110 109 109
72 77 82 89 90 94 97 100 102 106 104 104 103 102 103 104 103 104 104 105 108 111 111 111 111 112 113 115 117 119 120 123 126 126 125 124 123 116 113 111 110 108 107 107
79 76 81 87 89 88 91 93 95 96 98 100 104 107 107 108 111 113 113 116 116 117 118 120 122 123 126 128 129 129 128 128 126 123 117 111 107 105 106 104 105 105 107 100

GFSNW_250_spd_006.txt.gz
Wind_Speed
37 50 49 43 45 42 40 40 38 36 34 32 29 27 24 23 21 20 18 15 13 13 13 13 14 14 13 12 10 9 8 7 6 6 8 12 15 17 19 21 24 29 28 30
41 54 50 46 46 44 42 42 39 37 35 34 31 28 25 22 20 20 17 15 15 14 14 15 14 12 11 10 11 11 10 10 10 11 12 13 16 20 23 26 27 31 35 34
47 54 50 48 48 46 43 40 38 35 33 33 31 31 26 22 21 20 17 16 16 15 15 14 13 12 12 12 11 11 12 13 13 14 15 17 21 24 28 30 34 36 39 45
53 56 51 50 47 47 41 42 39 38 36 33 33 31 27 24 21 20 17 16 16 16 17 15 14 14 14 14 13 14 15 16 16 18 20 22 26 29 30 34 36 39 44 47
59 57 53 50 49 48 42 43 40 39 36 29 29 29 28 26 22 18 17 17 19 19 21 19 17 16 15 15 15 18 18 19 20 22 23 27 31 35 35 38 43 46 50 56
61 58 53 50 48 49 46 45 42 40 34 31 29 29 30 29 25 22 21 22 20 19 18 17 18 19 19 20 20 21 22 23 25 26 29 33 35 36 39 43 49 52 57 59
62 59 53 50 47 43 47 46 44 41 37 33 32 31 31 32 29 26 25 23 22 20 20 21 20 21 21 22 23 25 26 28 28 31 34 34 35 42 45 49 54 56 59 59
62 60 56 52 45 45 50 47 45 41 38 33 31 25 29 33 34 31 28 24 24 24 24 25 24 24 24 26 27 28 30 32 34 35 34 38 42 47 51 54 60 58 61 61
62 60 60 55 48 47 49 48 46 42 38 33 31 29 29 31 32 32 31 30 26 26 27 26 28 29 30 30 32 33 34 34 35 37 42 44 48 53 56 61 64 63 65 63
61 59 60 59 51 48 49 49 46 42 39 35 31 31 31 35 36 32 30 32 31 30 30 30 29 29 29 28 31 34 34 38 42 48 50 53 54 58 62 66 63 62 66 64
55 59 59 60 54 49 47 50 47 43 42 39 32 26 28 33 35 36 36 35 35 34 34 33 32 31 31 32 34 38 40 43 49 53 57 58 62 65 68 67 66 66 69 66
51 58 61 62 58 52 48 47 48 48 41 39 37 37 32 28 30 32 35 38 40 39 38 36 35 33 35 37 39 45 47 52 56 57 60 65 68 71 72 70 70 72 74 69
49 54 58 63 62 55 51 50 49 48 47 44 40 40 41 40 36 34 33 33 35 39 40 39 38 41 44 45 46 49 55 58 61 63 67 70 71 73 73 71 73 75 75 72
50 49 56 62 63 62 57 54 52 51 51 52 50 48 46 46 45 46 45 46 48 48 48 48 51 52 51 52 53 57 62 64 67 68 73 71 71 74 74 75 77 78 73 73
51 50 49 55 61 61 58 57 57 57 56 54 55 54 53 54 54 54 54 55 57 56 56 56 57 59 59 56 58 62 68 71 74 72 75 74 76 77 77 79 81 79 77 78
59 58 56 53 53 55 59 58 58 59 60 59 61 60 59 57 57 58 58 59 60 61 62 63 62 64 62 58 59 68 75 77 76 74 77 80 81 81 82 83 79 78 80 84
60 59 58 58 59 59 56 53 53 56 57 59 60 60 61 64 64 64 65 65 67 69 67 66 66 67 65 63 62 75 75 75 78 80 84 84 84 85 86 83 82 85 87 88
62 61 61 59 58 57 55 57 57 57 56 52 50 52 59 63 64 66 69 71 72 72 71 70 71 69 68 63 73 75 77 79 84 86 85 83 84 83 84 84 86 89 90 92
65 62 60 58 57 58 58 58 59 58 55 52 51 53 56 60 63 65 68 71 70 69 68 68 71 69 69 74 76 78 81 82 82 81 80 80 84 85 86 88 91 93 95 98
69 67 63 62 62 62 61 60 57 56 55 54 58 63 62 66 70 72 74 75 75 70 71 73 70 67 74 79 77 77 79 81 82 82 84 84 87 88 90 94 97 99 102 106
72 72 71 71 69 69 68 66 63 61 58 59 58 63 65 68 69 73 75 75 76 74 73 75 71 67 74 75 78 79 80 83 85 87 90 91 93 95 98 101 104 107 110 112
76 76 76 77 77 77 76 73 70 69 68 65 65 68 72 73 75 77 76 78 80 78 77 77 73 74 77 80 81 83 85 87 90 92 95 98 101 103 106 108 111 113 116 119
75 77 78 80 83 83 80 77 76 78 77 76 77 76 78 79 80 82 82 83 82 82 82 81 82 84 85 87 89 91 93 95 97 100 103 105 109 111 115 118 119 122 125 130
85 79 79 81 84 84 83 87 87 87 87 87 86 86 87 87 89 90 91 93 92 91 90 91 93 95 96 98 98 100 102 103 105 107 111 114 116 120 122 125 127 129 128 121
72 76 80 82 84 87 89 91 92 91 93 95 94 95 95 95 97 98 100 102 103 104 104 104 104 106 108 110 110 110 112 114 117 118 119 122 125 127 124 118 116 113 107 105
71 75 75 76 78 83 87 92 96 98 98 98 99 99 100 100 101 105 108 109 109 111 112 112 113 114 115 117 118 118 119 121 123 122 121 119 116 115 112 109 108 105 104 101
67 70 72 74 76 76 80 84 86 87 91 92 94 96 100 105 110 113 114 116 114 114 114 115 117 118 119 121 123 121 119 118 116 113 110 107 105 104 103 103 104 99 98 93

GFSNW_250_spd_009.txt.gz
Wind_Speed
57 55 46 41 49 43 39 38 37 39 38 35 32 28 27 28 26 23 21 20 17 13 12 14 14 15 17 17 15 14 10 7 5 4 4 6 8 10 13 16 17 19 22 24
58 55 45 48 51 43 41 40 41 41 37 34 32 30 29 27 24 23 22 19 14 14 15 15 16 17 16 15 14 11 9 8 8 9 10 11 11 13 16 20 22 24 26 31
59 52 47 54 50 45 44 43 42 41 37 34 32 30 27 24 23 23 21 17 16 16 14 15 17 16 16 14 11 11 11 12 13 13 13 14 16 18 22 26 28 28 32 36
60 51 51 56 49 46 44 42 43 42 34 35 34 30 27 24 24 23 21 18 18 18 16 17 18 18 18 15 13 14 15 16 16 17 18 18 20 23 27 28 27 32 37 43
59 52 55 56 48 47 45 44 45 42 41 39 35 32 28 25 24 23 22 20 20 20 18 16 16 15 13 13 14 16 18 19 20 22 23 24 26 28 30 29 31 37 43 46
59 53 58 54 48 48 46 45 44 43 39 37 35 34 31 28 25 25 24 22 21 19 17 17 16 15 17 19 19 20 22 23 23 26 25 26 31 34 31 33 39 43 48 51
60 54 57 54 48 51 50 47 44 43 39 39 38 33 33 31 28 26 25 24 21 19 18 19 19 19 21 19 20 23 26 27 28 29 29 30 36 38 34 39 46 48 51 57
58 55 57 55 50 51 52 46 44 43 42 42 36 32 31 31 32 30 30 26 24 24 24 24 23 22 24 24 24 27 29 30 32 33 35 33 38 39 43 47 51 54 58 63
57 56 58 55 52 53 50 47 46 44 44 40 34 32 28 30 33 34 33 32 29 27 25 25 26 26 26 27 29 32 33 34 35 34 34 36 42 46 49 52 56 59 65 66
57 58 58 55 51 50 52 52 50 47 45 41 34 33 33 33 34 34 34 34 34 33 31 29 29 30 31 31 33 35 33 32 34 38 38 37 46 51 56 59 61 65 70 69
56 59 60 56 51 47 48 49 50 48 46 42 38 37 33 36 35 33 34 34 35 34 35 35 35 33 34 34 35 36 37 38 40 42 45 44 53 55 60 64 65 69 69 70
56 58 59 56 51 49 47 50 48 49 48 45 42 39 36 34 37 35 33 36 39 39 39 39 39 39 38 38 38 42 40 43 45 51 54 56 59 61 65 66 69 72 73 73
55 58 59 56 55 52 48 45 47 48 46 44 43 41 41 38 36 33 30 32 36 38 40 41 41 41 43 42 41 43 45 53 56 58 61 65 66 67 70 70 74 75 76 78
53 54 60 57 57 54 53 47 44 45 48 47 45 43 43 43 44 44 43 44 43 40 38 40 43 44 45 46 48 51 56 61 63 62 67 67 70 73 74 76 78 77 79 83
53 51 51 59 57 58 57 54 50 46 44 46 49 48 48 48 48 48 48 50 51 52 52 52 53 53 53 51 53 58 65 68 68 67 71 72 73 73 76 77 78 81 84 85
51 52 50 50 56 57 61 59 53 50 49 48 48 48 50 51 54 57 59 60 60 60 60 58 57 60 58 54 56 69 72 74 74 73 75 75 76 76 78 80 83 84 82 80
53 51 50 49 46 51 58 62 61 58 55 52 52 53 55 57 58 61 62 63 64 64 63 63 64 65 63 61 62 76 76 79 80 79 78 77 80 81 83 83 82 83 84 86
57 56 54 54 51 46 47 55 65 66 62 60 57 56 60 62 64 66 69 70 71 71 70 70 73 71 69 65 73 74 75 76 76 79 81 83 83 83 83 83 85 87 90 92
55 56 55 57 58 56 57 57 58 61 64 63 60 58 59 61 66 69 70 70 70 71 70 72 71 66 64 71 74 74 76 78 80 80 80 82 84 86 87 89 91 94 96 98
59 55 54 54 55 55 55 56 56 56 56 56 58 63 65 68 71 72 72 71 69 66 65 67 66 64 69 74 76 78 79 79 79 80 83 84 87 90 92 93 96 98 102 106
62 61 59 58 58 58 58 57 56 56 57 58 59 64 66 68 69 72 71 69 71 68 69 71 68 69 73 76 79 81 82 83 85 86 89 90 93 96 98 100 103 107 110 113
66 64 63 62 63 62 60 58 59 59 59 59 63 68 69 70 72 73 72 74 74 72 73 75 72 74 79 81 83 84 86 88 90 92 95 97 100 104 107 110 114 118 119 120
70 71 70 69 69 68 66 64 63 65 67 68 69 71 75 75 77 79 80 81 81 82 82 82 82 84 86 88 89 91 93 95 98 101 104 106 110 113 115 118 119 119 123 124
69 71 72 73 71 71 71 72 74 76 78 78 78 81 83 85 87 88 90 92 92 92 91 91 93 95 96 97 98 100 103 105 108 110 111 114 116 117 120 121 121 121 117 112
73 75 76 74 73 75 76 76 78 80 81 82 83 85 88 89 92 94 97 100 101 100 101 102 103 104 106 108 109 110 111 113 113 114 116 118 120 121 119 113 112 113 113 112
78 81 79 79 82 82 81 81 81 82 84 88 91 92 94 95 97 98 100 102 105 106 107 108 110 109 109 111 112 112 112 113 112 111 107 105 107 108 108 108 108 106 102 99
68 71 77 79 82 83 83 85 89 90 94 95 97 98 99 101 102 103 105 106 105 105 106 108 109 107 106 105 104 104 104 103 102 103 104 103 104 106 105 100 100 95 92 88

GFSNW_250_spd_015.txt.gz
Wind_Speed
82 76 73 66 54 41 37 38 40 30 34 32 30 28 28 27 23 22 22 20 19 17 14 12 11 11 11 11 12 15 19 20 19 17 13 10 8 6 7 8 8 10 12 15
81 78 73 63 55 43 43 41 44 35 38 34 33 33 31 27 25 23 24 22 20 17 15 13 12 13 13 15 18 21 20 19 16 12 8 7 7 8 10 12 14 15 18 21
75 80 72 64 54 49 48 47 45 37 42 41 37 37 32 29 26 27 27 24 21 20 18 15 16 15 15 18 18 17 16 15 11 9 8 8 9 11 14 16 18 21 22 27
78 76 72 65 58 51 52 50 42 42 42 40 39 40 34 31 30 31 30 25 23 22 18 17 17 16 17 17 16 16 15 13 12 11 12 11 13 15 19 21 25 27 28 32
73 74 69 65 62 57 52 52 43 47 50 46 44 40 36 34 34 34 30 28 26 22 20 20 18 18 18 17 17 15 14 15 16 15 14 16 19 22 25 27 30 30 31 37
69 73 74 68 60 57 54 51 51 52 51 47 43 42 39 38 38 35 32 29 27 24 23 21 19 18 19 18 18 19 19 21 19 18 19 19 24 30 30 32 33 34 36 39
66 70 66 65 60 61 60 52 56 55 51 48 46 43 39 39 39 35 32 30 28 24 24 23 22 22 22 22 22 22 23 24 22 23 25 23 32 36 36 35 38 38 40 37
67 67 64 63 63 63 57 59 60 57 53 51 47 43 40 42 38 36 32 30 29 26 25 26 25 25 25 25 25 25 27 26 26 27 29 29 36 39 41 41 40 42 39 41
65 61 62 65 65 63 59 63 59 56 54 50 50 45 41 41 39 35 33 32 30 28 26 26 26 26 25 26 28 29 29 30 31 33 32 33 39 43 44 43 40 45 47 48
62 63 67 66 64 58 64 62 60 56 54 52 49 44 43 43 39 36 33 30 29 29 28 28 28 27 26 29 31 32 34 34 36 37 37 37 42 44 44 47 47 48 51 56
65 65 65 63 59 62 61 61 57 55 55 52 48 44 44 43 40 37 33 31 31 30 30 29 29 29 31 33 34 36 37 38 40 42 43 43 46 47 48 48 50 53 56 61
60 62 61 62 58 65 59 58 56 54 53 52 49 46 44 43 40 38 36 35 35 35 33 33 32 34 35 37 38 40 41 43 44 48 50 50 48 50 51 53 58 61 63 67
62 61 60 57 65 64 59 59 59 58 55 52 49 45 43 42 43 39 37 38 38 34 33 34 35 36 37 38 39 42 44 47 50 50 54 54 54 57 59 61 64 68 71 73
62 61 58 57 65 62 56 59 57 56 54 52 50 46 43 42 42 42 40 39 37 36 35 35 37 38 39 40 41 42 46 48 49 50 55 58 62 64 65 68 71 74 77 81
61 58 55 55 63 60 55 56 55 53 50 50 49 46 44 45 44 43 43 42 41 41 41 39 38 39 40 41 45 48 57 55 55 57 61 61 66 69 71 75 79 83 86 87
61 58 56 57 58 54 51 54 55 52 51 49 47 47 47 46 45 47 49 49 48 48 47 46 45 47 46 47 50 63 62 62 64 63 65 68 70 73 77 81 84 85 84 82
58 55 53 55 58 56 51 49 52 54 53 52 51 50 49 50 50 51 53 52 52 51 50 50 51 53 55 56 60 67 70 69 71 71 70 73 77 80 84 85 82 81 82 82
53 54 53 52 54 56 51 48 49 50 49 48 49 50 53 54 55 54 54 53 52 52 52 53 55 57 60 60 65 68 71 73 75 76 78 79 82 82 82 82 83 82 85 88
53 54 51 51 56 57 57 52 49 47 46 46 48 52 55 53 56 58 58 56 56 56 57 60 63 62 64 65 68 71 74 77 80 82 84 84 84 82 82 82 86 89 94 96
53 51 46 44 46 57 61 61 54 50 48 47 49 52 53 53 55 56 57 59 60 61 64 64 64 64 70 74 74 77 80 83 86 86 86 85 85 85 88 91 95 98 100 104
55 51 49 46 45 51 60 60 58 56 53 53 55 58 59 60 60 63 65 65 65 65 66 70 70 72 77 80 82 84 85 85 86 87 86 86 88 92 97 100 101 104 108 109
55 54 51 49 45 44 45 52 57 59 61 62 63 65 65 66 67 68 69 71 71 71 72 74 74 76 79 80 80 81 83 84 86 87 90 93 97 101 103 105 107 110 113 115
58 56 54 51 48 44 40 42 49 57 62 66 68 69 71 72 71 69 68 66 66 67 68 70 73 77 78 79 81 82 84 88 91 95 97 100 103 105 107 111 112 116 114 115
64 58 54 53 49 47 51 54 54 56 58 60 62 62 63 65 65 65 67 68 69 70 72 75 76 77 78 80 85 88 92 95 97 99 103 105 106 108 109 114 114 113 113 113
58 56 57 59 59 59 58 59 60 62 62 63 64 64 65 66 68 68 69 71 72 73 76 78 81 84 87 91 94 96 98 100 103 105 110 109 110 111 113 114 112 111 115 118
61 64 61 59 60 60 61 62 62 62 63 64 65 67 67 69 71 73 76 78 79 81 85 87 90 92 94 97 100 102 105 107 110 112 112 112 115 114 112 112 113 116 114 108
65 65 68 67 66 66 67 67 68 68 70 72 74 75 76 77 79 81 83 85 86 89 91 93 95 99 102 103 104 107 108 112 110 110 112 111 111 112 113 112 106 102 101 97

GFSNW_250_spd_021.txt.gz
Wind_Speed
123 122 117 111 103 100 95 93 89 80 77 73 73 69 71 64 42 34 29 26 22 21 21 22 21 20 20 21 22 21 22 22 22 22 22 21 21 21 19 17 17 15 14 13
121 120 119 113 107 100 98 93 89 85 80 79 77 75 78 52 42 35 32 25 24 24 25 24 23 22 22 21 21 21 21 23 22 22 22 23 22 20 20 19 19 17 19 18
107 116 115 113 109 105 100 100 92 87 85 79 74 75 68 50 42 36 32 28 28 28 27 25 23 22 21 20 19 20 23 24 24 24 23 23 22 22 21 21 20 20 24 24
92 100 105 106 107 103 103 96 88 91 81 72 68 61 54 49 41 37 33 31 31 28 26 26 24 22 21 20 21 22 24 25 27 25 25 23 22 22 24 24 23 25 27 28
87 86 88 97 97 99 95 85 85 81 73 65 57 56 50 46 43 40 36 35 32 29 29 28 24 22 20 20 22 23 26 27 27 27 25 24 24 27 26 26 27 28 29 32
84 82 78 82 86 78 83 82 81 74 60 48 58 56 51 46 43 41 38 35 32 32 33 29 27 24 21 23 26 27 27 27 28 28 27 27 28 28 27 29 31 31 32 36
76 73 74 76 71 70 77 74 69 61 55 50 59 56 52 47 44 42 41 37 34 35 33 30 28 25 22 24 29 30 30 29 30 31 29 29 33 31 32 33 35 36 38 41
69 65 72 71 65 68 68 67 66 61 52 66 65 57 52 51 46 43 43 39 37 36 33 31 29 26 25 27 31 32 32 32 33 33 34 35 36 36 37 37 40 38 43 46
55 63 62 65 70 66 67 61 60 56 67 67 63 55 55 51 45 44 45 39 39 37 35 33 30 28 27 29 31 32 33 34 36 37 37 38 39 39 40 42 42 45 49 49
60 63 60 62 64 62 66 61 63 65 72 70 64 52 54 53 49 47 47 42 40 39 37 34 33 31 31 32 33 34 35 36 37 38 39 41 41 41 43 44 47 49 51 53
70 68 67 66 65 69 68 62 67 77 76 67 59 57 55 54 51 48 48 44 39 41 39 37 36 35 34 35 35 36 36 37 39 40 42 41 43 42 46 48 49 52 54 53
62 64 63 65 66 67 66 63 73 78 74 64 58 53 55 53 56 53 51 47 43 42 37 39 37 38 38 37 38 38 39 39 41 43 44 42 44 47 48 51 54 54 54 58
62 59 60 64 66 66 71 62 76 75 71 64 59 56 55 54 54 51 52 46 43 43 41 41 39 40 41 40 39 39 40 41 42 44 46 47 49 51 51 53 54 58 61 64
61 61 62 63 65 70 75 72 76 72 66 62 55 57 56 56 56 52 50 48 47 45 43 43 41 41 43 43 41 43 43 43 45 47 50 50 51 50 54 58 59 63 67 70
56 57 60 62 67 74 80 72 73 71 67 61 60 58 57 59 56 53 52 50 48 46 45 44 42 43 44 43 43 44 47 47 49 48 47 51 55 57 60 61 67 71 73 76
55 58 62 67 71 72 75 71 69 68 65 61 62 57 58 58 55 54 53 51 50 49 48 48 45 45 46 45 47 48 51 50 49 53 57 60 63 62 65 69 74 76 79 82
59 62 65 69 72 74 75 67 65 64 64 61 58 58 58 57 54 55 54 53 52 51 51 50 50 50 50 48 49 50 53 55 57 62 65 63 68 67 72 76 79 82 84 87
58 61 62 63 65 69 68 67 63 62 64 61 57 54 57 55 54 56 55 54 53 52 51 50 50 50 50 50 54 58 62 65 65 68 70 71 71 76 79 81 83 86 88 90
57 59 60 61 60 61 59 58 60 62 60 58 54 54 54 56 54 55 56 55 53 52 51 52 54 53 54 59 64 67 68 68 69 70 71 75 79 80 82 84 85 90 91 87
51 51 50 51 52 54 58 57 55 56 55 51 52 54 55 52 54 55 57 58 57 55 56 56 55 56 60 65 68 69 70 70 69 72 76 80 80 81 84 88 92 88 89 91
41 47 49 50 53 54 52 49 49 52 51 51 52 53 54 54 54 56 57 59 58 58 58 59 59 62 69 72 72 73 71 71 74 78 80 81 83 86 91 90 89 92 94 97
43 44 46 51 50 43 40 41 46 49 48 48 51 54 55 55 56 57 59 61 61 58 61 63 61 66 73 74 75 75 76 78 79 81 83 86 89 91 89 92 94 97 100 103
47 50 48 49 49 46 41 41 47 55 56 56 55 54 54 57 59 60 61 61 60 62 62 63 64 73 75 75 76 78 79 80 82 85 88 90 89 91 94 97 99 102 106 110
46 49 49 48 44 43 46 48 49 52 55 57 58 57 57 58 61 61 62 63 64 65 66 68 75 76 76 76 78 79 82 86 88 87 87 90 93 95 98 100 105 110 113 114
39 49 51 49 49 50 50 52 52 51 53 55 58 60 61 63 64 65 67 67 68 69 71 75 77 77 79 82 85 87 85 84 86 89 93 95 97 100 104 108 110 111 113 115
41 43 50 54 55 55 55 55 55 55 55 55 55 56 57 61 64 66 69 71 71 72 75 76 78 79 79 79 80 83 85 88 91 94 97 101 103 106 108 110 111 111 111 112
36 43 51 54 57 60 59 58 57 56 57 57 58 58 59 60 63 63 64 66 67 69 70 73 76 79 81 83 85 89 93 95 98 99 101 104 107 108 110 109 109 108 109 110

GFSNW_250_spd_024.txt.gz
Wind_Speed
107 103 98 93 93 87 83 83 79 81 78 74 77 61 64 62 62 61 57 54 56 37 30 24 23 22 21 23 24 25 22 22 25 25 27 28 27 25 23 21 19 22 22 21
116 112 110 104 98 93 86 85 85 85 80 73 74 64 66 63 64 61 60 61 57 39 34 26 24 23 24 25 26 27 28 28 27 28 30 27 23 22 22 22 24 24 23 20
114 113 113 111 104 101 98 95 91 91 83 76 72 69 67 65 62 63 60 61 58 39 38 27 27 27 26 26 27 27 26 27 30 30 27 24 25 25 25 26 24 20 23 20
100 108 110 110 107 109 107 108 97 93 86 79 75 70 69 67 64 66 64 63 43 40 40 30 30 30 29 27 27 27 28 30 30 30 28 27 26 26 26 25 22 24 23 25
90 96 99 102 108 111 113 106 99 95 91 84 78 75 71 71 72 69 65 57 42 43 40 34 32 30 29 26 26 26 27 29 29 30 28 27 27 27 27 26 23 25 28 29
83 86 90 93 94 97 97 103 99 95 90 83 80 74 74 71 74 70 68 51 44 45 39 36 35 32 29 25 25 26 28 28 28 29 29 27 29 29 26 26 27 28 30 34
77 81 82 80 83 73 91 93 96 93 86 82 77 81 78 74 75 72 61 48 47 41 43 38 36 33 30 27 25 27 27 27 29 30 29 30 31 30 29 30 31 31 34 38
74 78 76 71 73 67 84 87 88 85 80 77 82 82 80 71 67 60 47 47 44 48 43 40 36 35 32 29 26 27 28 29 31 30 31 33 34 34 34 34 37 36 42 45
69 70 67 69 57 64 71 72 75 70 74 73 70 75 67 56 53 42 43 51 47 45 45 40 38 37 34 32 27 27 30 33 32 34 33 35 36 38 40 42 41 44 47 47
62 61 65 56 60 65 62 63 64 61 62 66 72 65 51 52 47 47 54 51 47 48 47 41 39 38 35 33 29 28 30 33 36 37 36 38 39 42 43 46 48 47 49 52
57 59 59 63 68 62 57 55 55 50 49 58 65 59 53 52 54 51 54 51 44 48 48 43 40 38 36 34 31 30 31 33 35 37 38 39 41 43 47 47 49 51 53 54
56 59 66 71 66 62 61 60 56 61 54 54 53 47 51 56 58 52 54 49 50 51 49 43 40 38 37 37 36 33 34 36 38 39 40 41 43 46 47 49 55 53 55 56
65 67 67 66 66 64 61 49 29 43 56 64 62 55 58 58 56 48 53 51 45 48 46 47 42 41 40 38 38 37 37 39 39 42 45 43 45 48 47 52 52 53 57 58
67 64 64 68 70 68 72 75 85 70 54 58 53 57 63 59 52 50 54 52 48 52 50 46 43 43 43 41 39 40 41 42 43 45 46 48 49 45 49 52 53 54 59 62
63 65 67 67 68 69 60 58 55 60 64 55 55 63 65 57 52 51 49 50 51 51 49 47 46 47 46 44 42 44 44 46 48 50 47 53 51 50 52 52 56 61 67 71
64 62 63 62 63 65 72 72 63 60 59 60 61 64 63 58 52 50 46 50 51 52 49 49 48 50 48 46 46 46 47 51 51 51 53 54 54 53 55 60 63 68 73 75
59 60 62 65 67 67 71 60 55 53 54 63 63 68 66 57 50 50 47 51 52 51 51 53 53 53 51 50 50 46 51 52 52 56 59 54 56 58 63 68 72 76 78 80
53 56 60 61 63 66 67 56 57 57 60 66 67 65 61 55 52 51 50 52 52 54 54 55 55 54 53 54 53 54 56 56 58 60 60 60 64 68 72 75 77 79 80 84
49 51 52 54 56 58 63 59 59 58 60 66 66 61 58 55 54 53 53 54 55 55 54 56 57 56 54 55 59 59 62 60 60 63 65 70 73 76 76 77 79 83 85 88
46 48 50 53 57 61 61 59 59 60 65 66 63 58 58 55 57 54 53 53 56 56 54 56 56 56 58 60 62 63 65 65 66 68 71 74 76 78 80 83 85 87 88 89
39 42 45 48 51 56 59 57 59 58 62 66 65 65 58 56 53 52 53 54 54 53 52 55 57 58 63 65 67 69 70 71 72 73 75 77 79 81 85 87 87 89 91 95
37 39 41 45 51 53 57 58 58 59 59 52 49 55 56 50 50 49 52 52 53 53 56 57 55 60 67 71 74 75 75 76 76 77 78 81 84 87 87 88 90 94 98 100
40 42 44 46 49 52 52 50 50 47 49 49 51 53 54 54 52 53 54 54 54 55 53 52 54 63 68 71 73 75 75 76 78 81 84 86 87 88 89 93 96 99 99 99
36 38 41 40 40 41 44 47 49 50 50 49 49 50 53 54 54 54 56 55 55 54 54 56 64 68 71 73 74 76 78 80 83 84 86 88 89 92 95 99 98 99 102 105
30 33 36 37 38 40 41 44 47 48 48 48 50 52 55 57 56 56 57 57 56 56 58 64 68 71 72 75 77 78 80 83 85 87 89 91 94 96 95 98 103 105 108 111
26 33 38 40 41 41 44 48 47 47 48 49 50 51 54 58 61 62 62 62 61 62 67 68 70 73 76 78 81 83 86 88 90 91 91 92 94 97 100 104 108 111 112 113
31 33 36 41 44 45 48 51 51 51 52 53 54 55 56 56 57 57 60 62 64 66 69 71 73 76 78 80 81 81 82 84 87 91 94 96 99 102 107 111 111 111 114 116

GFSNW_250_spd_027.txt.gz
Wind_Speed
113 106 103 108 110 107 102 96 87 92 90 84 76 67 65 68 60 55 55 57 52 46 44 40 33 26 25 23 19 22 23 24 26 25 25 26 30 27 25 23 23 26 27 26
118 110 104 101 105 102 102 97 97 96 94 85 71 67 68 69 59 56 55 55 53 50 50 42 35 29 27 25 22 24 25 26 25 23 26 23 24 24 24 25 27 28 27 25
113 113 110 109 109 101 98 95 101 101 93 79 71 68 66 68 61 52 54 56 50 50 51 46 41 31 28 27 25 25 27 28 28 28 28 25 28 26 28 28 31 27 30 20
99 111 112 113 110 110 101 97 92 85 82 71 66 68 65 67 54 54 56 56 53 51 51 43 35 30 31 30 25 24 27 29 28 29 30 28 28 28 30 30 33 27 27 26
94 103 101 105 111 116 111 93 89 86 84 82 72 68 61 62 56 57 58 57 58 55 50 47 44 30 35 32 27 28 28 28 28 29 29 28 30 32 33 33 30 27 27 26
84 89 97 97 104 110 104 93 98 93 88 81 77 65 69 62 59 60 62 61 59 56 55 48 49 34 35 33 31 28 28 29 29 31 32 32 35 34 32 31 27 28 28 27
74 81 89 92 92 98 92 96 102 98 93 83 71 74 73 66 60 64 65 67 63 58 56 55 47 35 36 36 34 29 30 26 28 30 29 30 33 33 31 30 26 28 31 33
68 74 80 85 78 79 87 100 103 101 94 85 82 79 71 72 69 68 67 64 66 59 60 57 47 36 38 38 37 33 29 26 28 28 28 29 29 30 30 30 30 33 36 38
63 67 72 74 71 70 81 86 91 95 93 80 80 82 78 76 74 73 67 66 66 62 59 51 42 39 40 39 39 35 31 26 27 29 29 29 29 33 34 33 33 39 42 44
58 63 67 66 66 64 67 71 80 88 83 83 83 81 75 78 77 71 67 66 64 62 56 45 40 42 42 42 41 36 33 30 29 30 32 33 32 37 36 38 40 44 46 48
58 59 61 62 60 57 59 62 69 79 80 79 84 86 79 79 75 68 70 67 60 52 47 41 43 45 43 42 41 39 38 34 30 32 34 37 38 37 40 41 44 48 48 49
55 57 59 57 54 59 60 59 65 73 70 64 70 79 77 72 67 62 65 61 49 49 45 45 46 47 45 43 42 41 41 37 35 34 35 36 37 38 41 43 49 47 49 52
52 52 54 56 59 59 60 60 54 51 52 51 56 54 60 59 56 56 59 53 52 43 45 47 46 45 46 45 44 42 42 41 39 39 39 37 37 40 42 47 51 51 53 55
50 56 63 63 60 63 53 47 44 44 27 31 32 32 32 45 46 48 46 52 49 48 52 52 45 45 46 47 44 42 43 44 43 43 43 40 41 43 46 49 52 53 56 58
64 70 69 70 63 56 52 46 52 51 39 26 33 36 33 38 42 50 51 52 54 54 55 51 46 45 49 50 47 46 45 44 47 44 44 43 45 47 49 52 55 56 58 60
75 76 73 71 64 63 64 53 44 39 42 56 57 51 41 45 46 54 59 52 53 53 49 51 49 45 50 51 49 48 47 49 50 49 47 47 51 54 55 56 58 60 62 64
72 75 75 77 81 65 58 61 55 50 55 55 53 56 51 50 49 55 58 53 54 51 47 47 48 47 52 51 51 50 51 53 54 54 52 53 55 59 59 60 61 63 66 70
74 78 82 86 85 78 72 63 64 62 51 61 52 46 44 49 53 59 58 56 55 52 50 48 50 50 52 52 51 54 56 56 58 58 60 60 60 61 63 66 68 70 73 78
66 73 78 81 79 83 86 75 71 67 65 46 43 44 46 54 56 61 61 59 58 55 53 49 49 49 51 51 54 59 58 60 60 62 65 65 65 66 68 71 74 76 80 82
63 70 94 94 90 91 89 92 87 77 60 42 44 55 60 60 60 62 62 62 61 57 55 53 52 51 52 53 57 61 61 60 64 66 67 68 69 71 74 76 78 81 83 86
52 50 51 53 53 57 59 85 82 65 55 52 49 54 57 57 61 64 67 65 63 60 57 58 54 53 55 57 59 60 63 66 67 68 70 72 74 75 78 80 83 85 86 87
42 53 59 57 49 56 55 67 64 65 64 60 53 57 61 61 63 64 65 66 64 62 57 56 52 51 56 58 60 62 65 67 67 69 71 73 77 79 80 81 83 85 87 90
44 42 44 47 48 52 56 64 71 69 69 68 56 54 58 60 62 63 65 66 64 59 55 54 52 53 56 61 64 66 68 68 68 68 69 72 75 78 81 84 86 88 90 94
27 30 34 33 33 39 43 51 55 51 51 50 50 54 56 60 62 62 62 62 61 57 52 54 57 58 60 63 65 67 68 69 69 72 75 77 80 83 85 86 89 93 95 97
26 27 27 29 33 39 41 40 46 48 45 48 51 53 55 58 59 57 57 58 56 56 58 60 61 62 64 65 67 68 70 72 74 76 79 82 84 86 90 92 93 94 95 97
27 28 30 30 30 33 36 39 42 48 51 53 53 53 55 56 56 54 54 54 55 59 64 65 66 66 65 67 69 70 73 76 78 80 83 86 88 89 90 92 94 97 101 103
26 28 31 33 38 41 42 43 45 47 49 52 53 53 55 56 55 54 57 59 60 62 64 66 68 69 70 72 73 74 77 80 82 85 86 87 89 92 95 98 101 104 107 108

GFSNW_250_spd_030.txt.gz
Wind_Speed
118 119 114 114 111 108 105 100 96 92 93 88 80 70 64 65 71 67 61 56 53 50 43 34 36 35 37 35 33 26 23 23 20 19 21 26 31 34 31 33 32 32 31 26
110 116 120 119 115 118 116 108 104 97 98 88 78 72 69 70 75 65 58 58 58 46 43 42 36 34 35 33 27 27 24 29 20 18 19 19 22 22 22 25 26 28 29 26
100 107 116 122 119 115 115 116 112 103 103 84 83 78 76 73 74 66 59 59 57 51 46 45 38 37 38 31 28 25 24 28 24 21 19 19 22 22 24 23 28 30 30 29
91 98 108 115 117 120 120 117 111 99 94 83 83 79 74 71 73 65 60 60 54 52 44 45 38 37 37 37 33 25 24 28 26 25 23 21 24 29 29 29 31 31 28 31
84 91 100 106 112 115 122 115 106 99 93 95 91 86 74 76 76 67 58 60 56 52 49 41 36 39 41 38 37 27 24 28 27 26 25 23 26 30 27 28 29 30 32 30
73 85 93 96 105 114 110 105 104 100 99 99 92 82 77 74 75 66 63 59 55 50 48 42 46 48 46 42 39 29 26 30 28 28 26 25 28 31 29 32 31 30 31 27
69 77 83 89 98 101 94 100 102 95 94 96 87 83 77 76 73 68 65 61 54 48 48 44 45 48 47 47 42 31 30 29 30 30 26 27 32 30 32 32 32 30 28 29
65 70 77 82 92 85 84 90 97 97 94 93 89 80 75 82 79 69 66 60 56 52 48 48 46 49 49 47 43 35 32 32 31 28 28 28 30 30 29 27 27 27 30 32
60 66 72 79 77 78 78 82 88 91 91 89 87 84 82 79 76 71 65 59 56 50 51 52 50 53 52 47 48 35 34 35 34 33 30 28 31 31 26 24 24 31 33 34
58 63 68 71 71 74 75 77 81 86 87 91 91 83 81 84 82 73 63 60 56 53 54 57 62 59 53 46 43 36 35 37 36 35 32 31 34 30 29 27 32 35 38 40
53 57 62 64 65 70 70 71 76 84 90 91 89 88 86 84 81 72 66 64 57 60 59 61 63 60 54 50 42 35 35 39 40 38 36 35 34 33 33 34 38 40 40 42
51 53 57 60 64 66 65 67 71 84 88 88 89 91 89 81 78 74 68 63 62 62 61 62 64 64 57 50 42 34 38 41 41 40 40 38 36 37 38 41 42 43 44 45
50 52 55 58 58 58 60 62 71 75 79 80 79 83 82 78 77 76 70 65 65 63 68 64 62 60 54 43 41 38 39 43 43 42 43 42 42 42 42 44 44 45 46 49
48 52 55 57 60 63 60 59 61 66 70 74 74 75 75 71 67 65 65 69 70 65 62 58 58 56 51 44 41 41 42 42 45 43 46 45 47 46 46 47 48 49 51 53
50 55 60 62 62 61 62 61 57 58 56 55 58 62 66 67 67 63 66 70 67 68 63 60 56 50 47 45 44 42 44 46 47 47 47 48 49 51 51 51 50 51 52 55
55 60 62 66 67 66 60 56 50 46 40 39 44 50 55 50 44 23 33 46 55 56 56 52 46 43 46 45 42 48 48 48 48 52 52 52 53 55 55 56 56 56 59 62
61 66 69 70 66 59 51 48 48 50 47 47 40 42 40 45 45 26 40 39 44 47 51 50 50 49 46 47 47 49 50 48 50 53 55 55 56 57 58 60 61 63 65 66
70 71 70 68 64 60 58 53 56 58 48 44 41 43 43 47 65 68 57 51 43 47 48 48 53 54 51 48 43 47 51 51 53 56 58 59 59 60 61 63 66 68 69 71
76 77 76 71 68 62 51 47 51 51 54 55 51 53 56 46 38 44 49 52 55 57 58 56 58 56 54 49 47 50 54 55 57 59 61 61 63 63 64 66 68 70 73 74
80 80 75 73 75 73 56 45 54 60 56 42 48 45 53 49 43 39 46 52 57 60 62 64 60 58 56 53 50 53 55 55 57 61 62 65 66 66 66 68 70 71 74 76
80 87 86 68 65 67 73 68 62 58 57 53 54 57 64 62 52 47 52 59 54 57 60 63 66 63 60 62 60 58 60 61 65 68 68 67 67 68 70 73 72 74 76 78
80 71 73 74 71 72 73 76 71 72 72 61 61 55 53 52 49 52 57 61 65 63 63 67 67 64 65 66 66 66 68 69 69 68 68 69 70 71 74 75 76 77 78 79
74 75 74 65 72 65 69 66 65 66 64 60 54 48 46 45 48 52 54 55 57 60 63 66 67 69 69 70 71 74 73 72 71 70 71 72 72 73 75 77 78 80 82 85
41 50 53 35 31 44 61 61 67 67 67 55 57 54 44 45 45 45 48 53 58 61 66 70 71 72 72 73 74 79 77 74 71 72 73 74 75 76 77 79 81 83 86 89
34 27 29 38 29 37 47 65 64 59 62 62 57 54 53 53 53 54 56 55 62 65 67 67 69 71 74 77 79 79 77 74 74 74 74 74 75 77 79 82 84 87 90 93
42 29 41 47 37 39 35 39 64 60 62 60 66 62 57 58 59 63 65 64 59 63 66 66 68 72 73 72 75 76 74 72 74 77 79 80 81 83 85 87 90 93 95 96
45 43 48 58 52 46 43 48 49 56 58 62 71 78 74 71 70 66 63 63 60 61 64 67 70 71 72 72 70 72 74 76 77 79 81 84 88 90 91 91 91 93 97 101

GFSNW_250_spd_033.txt.gz
Wind_Speed
96 101 103 105 111 109 112 109 109 103 109 104 90 80 73 73 78 73 65 56 49 50 50 49 46 49 43 34 29 30 30 27 21 18 18 22 26 26 26 28 28 30 32 31
90 95 104 107 107 113 114 112 106 106 113 109 90 84 80 77 78 72 68 60 49 50 49 48 48 47 45 40 30 28 29 30 25 19 18 21 22 24 24 27 30 27 23 28
86 90 98 106 108 111 116 116 115 106 113 96 90 86 80 76 79 74 68 63 54 52 53 48 50 50 47 43 35 27 28 29 27 23 19 18 23 24 23 22 23 21 22 20
81 85 92 101 108 109 115 117 115 104 96 87 82 79 79 80 80 69 64 60 54 54 55 50 52 51 48 41 35 31 30 31 27 25 21 21 23 26 25 23 23 21 23 21
76 81 86 95 102 108 114 112 107 102 93 93 87 84 76 76 79 71 64 60 59 60 57 54 54 53 50 43 37 38 35 31 29 25 22 23 26 27 27 20 21 23 22 24
72 77 83 90 99 105 103 97 105 102 95 94 89 78 78 78 83 76 68 66 62 61 54 54 55 52 48 44 39 36 35 34 30 28 22 21 26 30 24 23 23 25 26 29
70 74 79 86 95 96 91 93 103 103 97 95 84 83 81 79 79 77 73 69 63 61 59 54 54 52 48 44 41 40 36 33 30 32 26 21 31 29 29 27 26 26 29 31
64 67 73 80 87 85 86 90 90 97 99 96 96 90 83 86 85 79 75 68 66 71 66 58 53 50 49 42 43 42 42 38 33 31 29 25 32 31 31 28 27 27 29 30
59 63 68 76 79 82 80 85 86 85 96 99 102 98 90 83 83 85 77 73 72 67 62 56 54 49 48 43 49 47 49 46 37 32 32 27 35 30 33 30 28 30 29 27
56 60 65 70 74 75 77 79 83 84 82 98 106 95 92 91 91 81 78 71 66 62 56 54 53 49 50 45 49 52 51 47 41 38 33 30 37 30 34 33 37 32 32 31
54 60 62 66 70 70 72 75 76 77 80 92 97 101 98 94 89 77 70 68 66 58 53 55 55 54 49 50 55 58 56 48 48 41 36 33 37 36 37 40 39 37 35 35
54 57 58 62 62 63 66 69 71 74 80 80 88 88 90 85 86 79 72 64 59 54 54 54 58 52 53 52 56 60 56 50 51 45 39 37 39 40 40 41 41 42 41 41
49 50 53 55 57 59 59 65 70 70 71 78 78 81 87 89 84 77 71 65 60 57 56 57 56 54 56 56 58 60 54 53 48 44 41 41 43 44 43 43 45 47 47 46
44 46 47 49 53 56 61 65 70 74 76 78 82 84 84 86 82 75 70 67 65 63 63 64 62 61 59 59 63 59 57 51 48 43 45 44 45 47 48 47 48 49 51 52
43 43 44 50 54 56 60 66 70 73 74 76 79 81 85 86 79 77 74 75 71 66 65 68 64 63 65 62 63 61 55 52 48 45 47 46 49 48 49 50 50 52 54 56
39 43 48 49 52 57 65 71 72 66 69 73 80 79 78 79 78 75 72 73 71 69 66 69 66 64 63 66 61 56 55 50 47 45 46 47 49 51 52 54 54 55 57 59
45 48 50 54 57 60 61 60 60 61 65 69 76 75 74 74 68 66 68 67 67 71 68 61 62 63 66 63 53 48 49 48 48 50 50 51 54 54 55 56 56 58 59 61
50 54 58 60 61 60 63 62 56 57 60 57 52 52 55 59 64 63 61 59 54 54 58 59 56 56 53 49 45 47 49 51 53 51 55 57 58 58 58 59 60 61 62 65
55 59 61 63 63 63 61 60 58 56 51 49 49 49 50 52 60 57 49 42 44 43 47 44 43 44 48 48 52 56 57 60 61 60 58 59 60 61 62 63 64 67 69 71
62 64 64 66 66 65 62 58 56 55 52 52 52 49 47 41 43 44 45 40 33 39 49 46 45 47 50 52 57 57 58 64 67 65 64 66 66 65 64 66 67 69 71 72
64 67 67 63 60 59 61 62 61 59 61 57 57 55 45 40 56 54 55 50 49 55 68 63 54 54 55 57 58 60 62 66 68 69 69 71 70 68 68 71 74 75 75 76
68 65 60 56 53 53 52 49 46 58 64 60 64 56 55 51 63 69 66 65 69 73 66 59 55 58 64 63 65 67 69 72 73 71 73 75 76 78 79 80 80 80 78 79
68 70 70 65 61 59 60 61 60 61 59 60 69 63 70 69 71 67 64 68 66 67 69 69 62 68 71 69 71 76 78 79 80 78 80 84 81 80 81 83 86 84 84 84
67 67 64 63 59 55 55 55 51 52 56 53 54 56 56 58 62 68 69 65 66 63 55 55 63 71 74 74 73 72 73 76 80 84 85 86 86 85 85 86 88 92 91 90
64 64 59 60 61 59 58 54 54 55 58 59 58 58 56 58 59 62 65 61 57 57 58 56 59 64 67 71 73 76 78 79 80 83 86 87 88 89 91 90 91 91 91 89
41 50 57 58 45 56 50 50 53 57 51 59 63 64 63 57 59 56 57 57 55 54 54 55 56 56 57 60 64 69 76 81 82 83 84 85 87 88 89 89 91 89 90 92
21 34 53 39 26 47 25 27 37 61 58 53 52 55 60 60 59 59 60 59 59 59 63 64 63 62 62 65 67 70 71 72 76 81 84 86 87 89 91 93 91 92 94 96

GFSNW_250_spd_036.txt.gz
Wind_Speed
86 90 94 99 103 102 102 99 92 97 101 104 88 77 72 72 76 72 68 60 55 51 50 48 48 45 44 41 44 47 42 43 42 39 26 22 19 21 23 27 29 30 29 35
84 86 91 95 101 101 101 99 94 101 105 102 83 81 79 80 79 75 70 64 60 57 53 51 52 49 45 41 43 46 44 44 41 41 30 23 18 19 20 24 28 30 30 34
81 83 86 92 97 99 101 101 102 104 103 91 89 87 83 80 82 79 72 67 65 62 55 55 52 49 48 45 45 44 45 43 38 37 31 23 19 20 21 20 21 23 27 28
77 79 85 88 93 95 102 101 101 96 89 87 85 88 84 82 83 81 78 72 67 64 58 56 54 50 51 48 46 45 44 44 42 40 33 27 22 20 20 22 25 25 30 26
71 74 82 86 91 95 102 95 92 92 85 93 93 89 84 82 84 82 77 73 70 64 57 57 58 53 53 49 45 45 43 46 40 39 34 29 22 25 24 24 23 23 29 30
66 70 78 83 89 93 91 84 86 86 83 90 94 81 82 81 85 81 77 73 69 62 60 63 60 54 51 49 45 44 45 46 45 41 35 28 25 29 23 20 21 23 27 32
62 66 73 79 80 80 85 81 84 83 79 86 86 84 81 82 81 80 75 71 68 62 68 66 61 55 53 47 42 44 45 45 45 41 33 29 33 32 29 22 23 22 25 30
58 61 67 72 74 79 82 78 80 82 82 86 95 90 86 80 82 76 74 72 68 69 68 67 62 57 54 42 42 47 44 46 45 42 40 33 36 36 32 28 24 27 29 29
54 57 63 67 69 76 78 76 77 81 84 87 95 94 89 82 81 78 70 74 75 72 70 68 61 56 50 47 46 48 48 47 44 47 45 37 41 40 34 31 28 35 32 28
51 54 58 63 66 71 74 74 74 78 79 87 91 88 90 85 84 80 77 72 72 74 70 65 61 57 52 49 46 48 48 50 45 46 46 44 44 43 36 34 40 32 33 33
49 51 53 59 64 67 70 73 72 75 78 84 88 90 90 88 85 80 78 81 75 71 70 66 58 55 48 46 47 47 49 50 48 50 48 48 47 46 39 36 41 37 33 35
45 48 51 56 58 61 65 70 73 74 76 80 89 87 91 89 88 90 83 77 70 63 61 58 56 54 50 43 48 49 51 54 49 48 50 51 50 47 43 37 38 40 38 37
42 44 48 52 56 59 64 68 70 67 73 81 88 93 98 94 92 91 85 77 70 67 63 58 49 47 46 45 49 51 53 52 50 50 52 56 53 49 49 41 39 39 42 42
41 44 47 51 54 55 58 62 64 68 70 74 80 87 96 98 95 89 84 80 74 66 60 61 58 57 53 51 54 54 53 51 52 51 57 58 53 54 54 47 45 44 44 46
40 41 43 45 48 50 53 58 62 70 72 75 84 87 94 99 96 92 88 82 77 70 64 59 58 55 51 50 51 53 54 53 55 54 62 58 59 56 54 50 47 46 46 48
36 38 38 40 43 45 47 53 58 64 67 74 78 80 88 96 99 96 93 85 78 73 69 67 58 58 56 52 50 53 57 59 60 58 59 60 57 54 54 50 48 49 50 52
37 38 39 41 43 45 49 52 55 60 64 66 67 72 75 81 91 91 88 84 79 76 71 64 62 63 59 56 52 54 56 58 58 59 61 57 55 54 50 51 52 54 55 56
37 39 41 43 45 49 54 59 64 69 70 71 71 73 79 83 81 82 81 79 75 72 73 67 64 62 61 60 57 59 62 63 64 63 55 53 54 54 56 58 59 58 58 60
38 40 43 46 48 50 51 53 58 61 61 61 63 68 74 75 73 75 74 76 77 71 66 64 63 59 59 57 58 60 62 63 65 67 60 55 59 63 64 65 65 66 66 67
42 44 46 46 49 51 55 60 64 62 63 64 63 62 61 62 67 67 68 66 65 65 63 63 61 57 59 60 58 61 60 64 67 62 59 60 65 69 69 71 70 71 74 74
39 37 38 38 39 41 50 60 58 59 57 54 51 49 52 51 52 55 60 62 59 57 56 57 56 54 56 54 54 54 60 64 63 65 65 65 65 67 69 69 71 75 77 79
43 43 44 47 49 47 44 53 53 50 47 46 45 44 41 48 41 44 51 55 54 53 53 55 54 50 49 59 65 68 65 63 59 62 64 67 68 71 71 73 76 81 82 86
50 52 54 53 52 53 55 54 53 52 50 49 49 50 42 41 32 35 37 41 41 50 57 55 50 53 58 64 72 75 75 73 72 69 67 68 74 78 80 80 82 86 92 94
47 46 49 50 51 48 52 55 53 52 51 51 52 56 59 52 45 45 48 50 52 53 54 54 56 58 61 70 77 78 78 74 72 75 76 75 80 85 88 87 86 88 90 94
50 49 45 42 44 48 47 52 57 55 56 59 61 61 63 48 49 52 59 64 60 60 63 63 64 68 72 74 77 80 85 75 75 79 83 84 79 79 83 90 95 96 97 98
54 51 52 51 50 51 52 55 57 59 54 57 57 60 61 60 62 61 60 62 66 67 71 71 73 74 74 75 75 76 78 77 77 74 69 69 72 71 72 77 81 87 90 90
37 43 38 28 42 51 52 51 49 42 52 57 59 58 56 62 66 67 65 63 73 68 77 78 80 80 80 83 83 80 81 82 80 75 77 79 79 80 83 86 90 94 95 95

GFSNW_250_spd_042.txt.gz
Wind_Speed
85 85 85 88 94 97 99 101 100 98 111 120 108 94 81 80 80 86 82 81 79 71 67 63 56 53 54 49 44 38 39 36 31 30 32 35 37 39 36 29 28 25 28 32
85 84 83 83 85 89 92 93 96 102 113 113 98 84 87 84 82 83 81 83 83 76 73 67 59 61 62 51 47 45 48 40 36 31 34 35 37 36 38 34 26 28 25 30
78 84 84 82 83 85 86 87 94 101 106 97 91 85 87 85 83 86 84 86 89 80 75 72 68 67 63 58 53 50 51 43 41 34 34 36 35 37 36 36 30 29 27 29
72 75 78 81 80 81 82 80 85 87 89 93 85 85 81 83 83 84 83 88 86 83 80 74 69 70 65 63 57 52 54 44 44 39 36 36 35 37 35 34 29 29 33 28
67 68 70 74 76 76 75 71 73 76 81 89 85 84 79 81 84 87 81 85 87 84 80 79 75 72 67 65 59 55 54 45 46 42 37 38 36 40 35 34 31 28 31 36
62 63 64 68 71 71 61 59 69 71 73 83 82 80 81 81 85 88 84 87 89 83 79 84 79 77 71 64 60 58 54 47 47 43 38 38 39 39 37 38 33 30 26 32
59 59 60 64 63 56 51 62 68 65 65 73 79 77 84 88 86 89 87 86 84 80 80 82 79 77 73 68 64 62 57 51 48 43 39 36 45 36 40 38 37 30 30 30
53 55 55 57 56 51 56 59 62 63 66 75 80 82 86 94 93 91 88 87 84 83 83 81 78 76 72 70 68 64 60 54 48 42 40 40 43 42 41 35 40 32 31 29
44 47 49 52 51 49 54 58 64 63 63 69 80 83 90 94 93 95 94 92 89 86 82 81 76 74 73 74 70 66 60 55 51 44 41 37 51 46 43 39 41 35 34 35
39 43 46 48 49 50 56 60 62 56 64 68 75 82 91 96 98 97 97 94 88 85 83 77 75 76 77 71 68 64 59 54 50 46 43 43 52 44 43 38 40 38 37 37
39 42 45 46 48 51 58 60 55 56 60 69 76 82 91 100 102 101 95 97 89 86 83 78 73 75 76 73 68 64 58 55 48 47 44 41 53 46 45 44 39 39 41 39
40 41 44 47 48 54 55 52 53 54 58 69 76 83 92 97 102 101 95 86 85 82 77 77 74 72 73 72 66 58 57 55 53 49 46 49 49 46 46 44 42 40 42 43
41 43 44 45 48 49 48 48 50 54 60 69 77 83 90 96 98 97 92 90 84 80 77 80 77 70 69 67 62 59 56 54 51 50 49 51 50 51 47 46 45 43 45 47
41 42 42 43 43 43 45 45 47 51 58 68 75 81 91 97 97 94 89 88 85 80 78 78 73 67 67 66 62 59 55 51 48 49 51 54 54 51 51 46 43 47 48 50
36 36 37 38 38 38 42 43 47 53 58 65 74 81 86 89 92 92 89 88 84 81 77 71 66 64 62 61 56 48 48 45 50 52 59 59 54 52 48 44 47 50 51 51
33 35 36 37 38 37 38 43 48 53 58 65 70 76 82 88 93 94 90 90 87 83 79 73 67 60 58 54 49 48 48 50 54 55 58 57 52 50 49 46 50 52 53 55
34 34 34 36 37 39 42 46 47 51 55 62 71 77 83 86 93 96 94 91 87 83 79 74 69 65 56 49 44 51 53 56 56 56 57 54 53 51 50 51 54 56 56 58
32 32 31 32 33 36 38 41 44 49 54 61 67 70 74 81 87 90 91 89 86 84 81 77 72 66 57 49 51 57 58 57 58 58 59 58 58 56 57 57 60 59 60 64
28 29 29 30 32 34 36 38 40 42 45 52 58 65 69 73 79 88 89 87 83 82 79 78 75 66 55 51 60 63 60 60 63 61 59 57 58 59 60 61 64 63 64 67
24 24 25 26 28 29 30 32 35 38 46 53 58 61 65 71 81 87 88 87 84 81 77 78 72 67 63 60 62 63 62 63 64 64 62 62 61 60 60 61 63 64 70 74
22 22 23 25 28 30 30 33 36 39 47 54 56 59 59 69 78 84 87 88 83 80 77 75 72 72 69 65 66 68 67 67 68 67 65 64 63 62 65 67 67 71 74 71
25 24 24 25 27 30 35 37 38 42 48 50 57 59 63 71 75 79 84 81 79 77 73 72 70 71 72 69 69 72 72 70 68 67 68 67 66 67 69 69 73 72 72 76
29 28 26 25 25 24 25 29 36 39 41 43 46 42 48 54 60 69 73 78 79 76 75 73 70 70 70 70 72 74 74 71 68 68 70 71 71 72 76 75 78 82 85 84
27 26 27 28 28 27 29 29 31 36 39 42 46 47 46 46 50 59 68 74 77 77 71 66 65 68 72 73 72 71 72 72 73 74 76 77 74 79 84 85 85 86 86 77
33 30 27 28 29 28 29 31 35 38 40 42 43 43 44 44 47 52 58 68 74 72 68 67 71 72 73 74 73 74 74 73 76 79 81 78 77 83 88 86 86 86 83 78
32 30 25 28 29 28 28 28 32 34 36 37 38 40 41 42 45 48 52 53 53 57 62 66 71 72 71 70 70 71 72 74 73 76 83 86 84 83 86 87 85 86 86 85
26 26 25 28 30 31 35 34 32 33 32 32 33 34 38 41 41 41 44 44 48 51 55 60 64 68 70 69 69 67 69 72 76 81 84 84 85 86 86 88 88 92 93 93

GFSNW_250_spd_045.txt.gz
Wind_Speed
84 87 89 91 93 96 99 101 98 104 111 119 121 119 104 104 109 110 106 102 91 84 77 75 71 67 61 54 52 50 50 50 38 38 36 36 33 33 35 36 38 36 31 27
80 82 84 85 87 90 93 93 96 99 110 107 105 104 98 99 99 102 100 101 95 87 79 80 69 69 68 61 53 63 53 51 48 41 37 40 35 36 38 36 37 38 35 30
81 83 83 84 84 84 86 85 88 94 94 93 96 99 90 95 98 99 98 91 93 88 82 77 73 72 73 67 54 60 58 54 47 42 41 43 35 39 40 34 38 40 36 34
78 78 79 82 85 84 87 80 73 75 76 79 81 88 85 89 91 92 93 89 87 85 84 82 81 77 77 71 59 59 55 53 51 48 43 42 39 40 38 37 38 40 39 38
75 77 79 84 89 86 87 74 67 66 68 76 78 84 84 85 87 95 92 89 88 87 87 88 90 85 80 75 64 66 65 64 63 55 48 45 45 44 41 36 39 39 40 39
70 73 75 80 81 83 80 63 63 66 67 68 73 71 73 77 86 86 92 95 98 93 88 92 92 90 85 80 72 67 68 68 67 55 51 47 40 46 43 37 39 40 40 39
68 70 71 74 77 70 73 64 67 64 64 60 65 69 72 75 79 83 90 99 100 95 96 91 94 90 88 83 79 73 66 69 64 59 54 45 46 46 43 41 42 38 39 39
59 61 63 66 68 65 65 67 59 58 62 62 71 68 66 75 84 93 97 96 96 106 101 94 91 90 86 81 82 78 71 63 61 57 53 47 48 46 45 41 40 38 38 39
51 53 55 58 58 60 59 58 57 55 63 64 73 67 66 70 81 87 92 99 103 104 98 94 89 88 84 86 82 80 74 65 57 56 57 49 53 52 50 44 45 42 36 37
42 44 48 51 53 53 52 51 53 56 59 65 69 66 65 71 82 85 91 98 101 98 95 92 87 87 85 85 83 78 76 69 69 65 59 52 56 56 54 43 54 42 40 39
35 40 43 44 46 48 47 49 53 56 61 66 62 58 59 69 77 86 88 98 100 97 98 91 85 84 82 85 79 78 78 72 67 65 62 53 59 62 53 52 50 43 46 45
32 36 39 41 44 46 48 50 56 59 63 61 53 56 62 68 78 87 96 93 92 93 94 90 88 84 82 80 79 76 76 72 67 64 57 58 63 57 55 54 51 48 48 48
31 34 37 39 41 45 49 52 55 56 56 52 55 57 61 69 78 87 88 93 94 98 94 95 91 85 82 78 70 70 73 67 61 60 54 57 59 58 56 57 54 51 52 51
33 36 39 43 47 50 51 51 52 54 54 54 55 59 64 70 78 83 87 97 98 97 97 92 86 84 81 76 71 69 67 65 57 54 56 58 56 59 64 60 54 57 57 56
35 38 41 43 46 47 49 51 53 54 54 53 54 56 61 67 75 82 87 90 93 92 90 85 82 80 78 71 65 58 60 59 59 58 58 60 58 63 58 56 56 60 61 60
34 37 39 41 41 42 43 45 46 45 49 53 53 55 59 67 71 75 78 85 90 91 90 84 84 80 75 70 60 58 56 58 59 57 61 60 59 59 60 59 56 59 60 60
33 36 37 39 39 39 40 43 46 49 50 49 50 52 57 63 69 76 77 84 88 90 87 84 80 78 68 61 58 59 59 58 58 60 58 58 58 60 64 62 57 59 59 59
33 35 37 38 39 39 38 38 40 42 44 44 45 49 52 58 66 70 77 82 87 88 85 81 78 72 64 58 55 61 62 58 61 64 63 58 58 60 64 69 63 62 62 65
30 30 30 29 29 31 32 34 36 38 41 43 44 48 50 57 63 70 75 81 84 87 84 80 77 70 63 60 56 62 61 57 63 67 63 60 60 63 66 69 71 69 68 68
27 26 26 27 27 28 29 30 32 33 34 37 41 46 50 60 67 68 73 79 83 84 80 79 74 68 69 60 60 57 57 58 63 65 66 64 64 65 65 67 69 70 71 70
26 25 25 26 27 28 28 29 30 31 34 36 40 47 54 61 63 71 73 77 84 85 81 78 73 73 67 65 64 62 60 62 67 68 69 69 66 65 67 66 67 69 70 73
26 25 24 24 25 26 28 29 29 29 32 36 40 44 52 58 65 68 61 73 77 82 82 80 74 69 68 68 67 66 64 65 68 71 71 72 72 73 73 74 74 76 76 78
26 24 23 22 22 22 23 25 28 30 34 36 39 44 49 52 54 54 61 74 77 75 78 75 71 69 69 70 69 70 70 71 73 72 74 74 74 75 75 75 78 81 81 81
23 23 23 23 23 24 24 22 23 27 29 34 38 41 45 47 51 54 60 64 66 73 73 73 71 70 69 71 72 75 75 75 78 78 76 77 78 79 80 81 82 84 85 86
25 25 27 27 25 25 25 25 24 25 26 29 29 34 36 36 38 43 50 58 63 68 72 75 74 70 70 69 69 72 73 76 79 81 82 82 84 84 85 85 88 90 90 90
28 29 27 26 27 28 28 27 27 28 28 28 30 32 32 34 36 40 44 48 55 61 67 73 74 74 73 74 73 74 75 77 77 79 81 82 82 83 85 87 90 93 95 95
28 28 28 31 30 27 27 27 27 27 29 31 32 33 31 33 35 38 41 45 49 54 59 65 70 71 72 74 77 79 80 80 80 81 83 84 84 87 89 90 92 95 97 99

GFSNW_250_spd_048.txt.gz
Wind_Speed
83 85 87 89 91 93 95 98 98 105 109 111 109 110 107 105 102 102 103 100 94 93 91 92 80 74 68 63 58 53 46 46 46 44 45 42 43 39 37 37 37 36 34 41
80 82 84 85 86 89 91 91 95 100 103 98 98 101 103 102 107 108 108 106 100 98 95 93 85 75 74 72 63 56 52 49 50 48 46 42 43 42 39 37 36 38 37 40
72 74 77 80 83 86 88 90 91 91 90 91 90 95 94 97 98 103 113 114 111 106 101 97 89 84 79 77 68 64 59 53 51 53 52 56 49 43 38 38 36 39 37 36
71 72 74 74 77 81 85 84 80 82 81 80 83 89 89 93 94 94 105 113 112 110 107 104 98 94 87 83 74 70 69 57 57 51 45 56 56 48 43 39 37 40 41 38
72 73 73 74 77 81 82 74 64 71 70 76 77 78 81 82 86 88 93 100 103 110 111 110 103 102 95 90 77 73 75 60 63 65 53 53 58 53 45 39 43 41 38 38
69 69 69 73 76 81 77 67 58 55 57 62 67 64 70 74 80 82 87 92 101 109 108 113 114 110 106 96 88 81 74 65 67 65 54 51 52 54 51 45 47 42 40 38
68 69 70 73 77 80 80 64 67 61 57 61 55 65 69 68 72 77 85 93 97 92 101 111 107 106 102 97 96 87 75 72 71 66 58 49 52 57 61 54 49 46 43 39
66 66 68 70 73 77 81 64 59 62 55 59 67 65 63 70 68 68 79 84 76 88 105 105 109 102 97 100 91 81 78 77 74 64 61 50 50 61 64 57 52 48 43 41
60 62 64 66 68 71 72 62 65 59 55 54 64 73 73 67 69 67 68 73 80 93 102 106 112 111 106 94 85 82 81 80 76 72 67 57 51 58 63 60 46 53 47 45
52 55 56 59 62 66 66 62 61 55 55 58 63 65 70 71 64 65 70 72 82 91 92 98 96 98 101 97 90 83 84 84 81 76 72 66 51 61 63 51 54 58 52 48
43 45 46 50 55 57 57 59 57 54 54 65 60 62 69 64 64 67 64 76 83 89 94 94 96 99 100 91 85 81 84 84 86 80 77 69 68 56 53 59 62 56 54 51
35 37 39 43 45 47 51 53 55 56 60 56 58 65 63 60 65 69 74 67 77 87 78 86 88 89 92 85 83 80 80 78 82 82 78 71 73 65 62 64 64 63 59 55
31 33 36 38 42 44 46 49 51 52 54 58 61 62 59 65 67 66 60 62 68 79 75 85 87 90 93 91 83 82 77 80 76 76 68 69 69 72 75 73 73 68 62 57
27 30 33 36 39 41 43 43 47 50 54 57 60 60 60 58 60 56 57 60 66 70 80 84 82 84 86 88 86 83 79 80 73 71 68 70 72 69 73 71 63 58 60 59
25 27 30 35 37 40 44 48 50 51 52 55 55 52 52 54 52 54 55 56 62 72 76 68 73 78 83 84 83 79 79 74 72 69 68 71 75 74 82 71 63 63 64 61
28 32 34 35 38 39 40 41 43 45 46 45 42 46 49 49 49 50 51 55 61 70 69 74 76 77 80 80 76 76 74 73 72 72 70 73 69 71 70 64 66 64 66 66
24 29 32 35 37 37 37 39 41 41 41 42 46 48 49 48 46 48 50 52 59 66 69 70 72 76 79 76 72 73 72 69 70 69 71 66 66 68 69 67 67 68 69 68
23 24 26 27 29 30 31 31 32 33 35 38 39 42 42 40 42 43 45 51 64 70 72 71 76 80 80 74 71 72 72 72 68 65 65 64 65 69 68 66 67 68 72 71
28 29 29 29 29 30 31 31 33 35 35 36 37 36 36 36 39 41 45 51 56 63 65 63 68 75 76 74 72 72 69 63 60 61 64 63 64 64 64 68 68 70 73 75
27 28 28 29 30 31 32 32 32 31 29 28 28 28 29 31 33 39 45 49 51 56 58 63 69 73 70 70 70 67 64 63 66 64 64 62 62 64 68 69 70 70 73 73
27 28 28 27 27 27 28 28 28 28 28 29 28 30 31 32 36 41 44 44 47 51 56 63 66 66 68 69 66 66 66 61 58 60 64 65 66 69 71 71 71 72 71 73
25 24 24 24 24 24 24 25 26 27 27 28 30 31 32 33 37 41 42 45 48 51 56 59 61 62 66 68 66 65 65 64 66 65 61 62 64 65 68 71 72 72 74 74
22 22 23 22 21 21 21 21 22 25 26 27 29 31 34 36 39 40 44 48 47 50 52 54 61 62 65 67 67 66 65 66 69 71 67 64 69 72 72 73 77 80 82 82
25 25 25 25 25 22 20 22 22 21 23 26 28 29 31 34 33 34 37 39 40 39 44 53 57 61 65 68 67 67 68 69 71 73 72 71 73 75 78 77 77 79 81 82
26 27 28 28 27 27 26 23 23 22 20 20 20 21 24 28 30 24 24 29 28 34 41 52 56 61 67 70 70 70 70 74 75 76 76 77 78 79 80 82 82 83 86 88
27 26 28 30 29 28 29 28 28 27 27 25 25 24 23 24 25 22 22 29 32 35 40 49 53 54 62 69 72 72 73 74 76 79 82 84 83 84 87 89 91 91 92 90
29 28 29 31 31 30 30 29 28 28 28 27 25 24 24 24 25 27 28 31 35 37 40 47 52 55 61 67 72 75 77 78 78 79 80 81 83 86 89 92 93 94 95 95

GFSNW_250_spd_051.txt.gz
Wind_Speed
76 77 78 79 82 87 90 91 94 106 111 109 110 100 96 97 89 94 94 88 85 85 83 80 77 76 74 73 72 70 65 64 51 45 32 33 29 27 33 36 38 34 34 34
73 74 75 76 78 82 85 86 90 93 95 92 99 110 108 108 102 103 95 95 90 87 82 87 89 84 80 80 77 71 71 67 57 50 45 38 35 29 36 40 32 35 31 36
68 71 72 72 73 78 83 85 86 86 86 87 86 92 98 101 103 105 105 106 103 97 92 88 86 92 89 87 84 80 78 71 57 52 51 46 37 35 37 45 38 43 36 36
60 64 68 70 72 76 81 78 72 77 76 79 84 87 91 93 91 96 105 106 112 106 103 99 92 91 94 94 89 84 83 74 64 54 56 48 39 42 39 42 39 42 46 36
55 58 59 63 67 71 79 73 69 72 74 76 77 77 77 86 89 85 88 97 111 119 114 109 104 99 97 98 97 93 87 75 72 63 57 58 47 44 42 41 41 39 48 45
54 57 58 61 65 71 73 66 64 65 66 71 73 69 71 76 83 80 84 90 100 104 99 106 112 108 106 102 101 97 93 82 77 68 63 62 54 43 46 44 45 45 47 49
56 57 59 61 64 67 69 59 59 60 59 65 59 64 67 69 73 76 77 79 78 83 102 105 108 112 112 106 103 110 100 89 85 78 73 72 55 53 54 53 47 42 47 53
58 60 61 60 63 67 68 57 56 53 50 54 57 55 63 66 70 68 69 68 79 91 99 100 101 100 105 109 112 110 106 97 92 85 79 66 56 55 58 56 49 46 51 54
60 62 63 64 66 68 73 61 64 58 53 46 62 58 60 65 65 67 63 64 81 87 92 91 91 90 90 101 108 113 110 105 101 93 85 71 57 58 62 60 46 48 53 59
61 62 63 63 66 67 70 64 63 61 51 53 58 57 61 68 65 63 60 66 77 83 84 84 80 79 86 93 100 107 110 114 103 96 89 73 68 64 72 64 46 58 58 58
54 56 59 61 62 64 64 60 62 63 51 52 48 53 60 63 62 61 65 76 74 72 68 69 72 73 80 87 96 97 102 109 104 100 93 84 76 71 74 64 66 67 58 58
45 48 51 54 57 57 56 56 59 60 52 48 43 47 58 59 62 65 68 67 71 58 61 56 66 71 81 87 95 98 97 99 96 93 82 77 76 74 75 75 73 71 67 57
36 38 41 44 46 47 50 55 55 55 51 46 46 48 56 57 59 61 60 63 65 52 56 57 65 73 81 88 89 91 84 80 81 79 77 78 75 76 81 79 77 76 72 68
29 33 35 37 38 40 45 50 47 47 44 44 45 50 56 58 57 51 51 58 51 49 54 56 63 70 78 83 85 83 79 77 77 77 76 76 76 80 82 82 80 80 77 74
24 26 30 32 35 38 38 39 43 44 42 44 49 52 54 49 47 48 52 48 46 50 56 59 63 64 72 75 77 73 68 67 73 76 77 76 76 77 79 79 81 81 81 78
18 20 24 26 28 31 33 35 36 38 41 43 44 45 45 45 43 42 43 40 43 50 54 56 57 61 64 65 66 63 65 70 74 77 77 75 72 71 75 77 73 76 75 74
17 20 22 23 25 27 28 29 29 30 32 33 36 36 36 35 34 36 39 41 46 48 50 53 54 61 65 66 66 64 67 67 74 75 75 72 70 69 68 69 70 74 74 72
17 19 21 24 25 26 26 25 27 28 28 28 28 29 31 33 38 40 43 44 46 47 50 52 55 56 56 59 58 63 66 70 70 73 74 70 70 71 69 68 68 72 72 73
22 21 21 23 25 27 28 28 29 29 28 31 32 30 33 37 39 38 41 45 45 48 49 50 51 54 55 55 55 63 66 65 65 68 70 72 73 72 69 65 67 69 71 72
28 27 25 25 25 26 27 27 27 28 29 29 30 31 34 34 33 35 36 38 42 44 46 47 49 52 53 50 55 60 60 61 63 64 66 69 70 70 67 66 66 68 70 71
27 29 30 30 30 30 30 29 28 29 30 30 30 31 31 31 31 32 32 31 32 35 39 41 44 45 34 45 55 59 59 61 63 63 65 66 66 65 64 66 68 70 71 72
27 28 29 29 28 27 28 28 29 31 31 31 30 30 29 29 29 26 25 30 32 35 38 37 34 29 32 38 50 56 59 62 63 62 62 62 63 64 65 65 66 68 70 72
28 29 29 28 27 26 26 25 27 27 28 29 29 27 28 29 25 26 30 30 32 35 35 35 35 34 40 47 53 58 61 63 63 62 62 66 67 66 65 67 70 73 75 76
28 27 27 27 26 25 25 24 22 21 22 22 23 24 21 20 22 24 24 24 27 26 27 30 32 37 43 49 54 59 61 64 65 65 68 70 66 65 65 68 70 73 74 75
27 29 30 29 29 27 25 27 23 21 19 15 12 11 13 13 14 18 18 20 22 23 27 30 32 36 43 48 53 58 61 64 66 68 69 69 69 71 74 75 77 78 80 81
27 28 29 29 29 28 27 29 27 26 24 23 22 20 16 13 10 9 13 15 14 14 15 18 26 32 40 46 52 57 62 65 67 69 70 72 72 74 77 80 82 83 84 85
28 30 30 30 30 29 28 27 30 29 28 25 23 18 14 13 13 15 13 11 15 18 20 23 24 30 35 43 50 57 61 65 68 71 73 74 76 79 82 85 88 90 91 92

GFSNW_250_spd_057.txt.gz
Wind_Speed
62 64 65 67 66 71 72 72 68 76 75 77 78 73 73 80 87 87 84 80 78 76 74 73 72 71 68 66 65 58 59 58 61 60 58 55 51 44 46 45 42 40 34 30
55 55 57 60 65 66 70 68 67 78 73 66 73 81 83 78 81 87 89 86 85 81 78 81 81 75 75 76 72 69 66 66 64 64 62 59 57 49 49 49 45 37 40 35
50 50 52 56 61 63 65 64 67 71 68 66 75 80 87 83 85 85 80 79 76 78 85 81 79 83 87 81 78 73 72 70 68 66 68 66 62 56 54 51 46 45 38 38
48 47 50 52 55 59 60 58 57 64 65 70 76 79 87 93 91 92 87 83 75 75 74 73 75 86 92 87 87 83 79 70 70 67 73 71 67 62 58 53 50 48 44 43
43 46 50 53 54 54 50 53 55 62 67 72 73 74 77 84 93 95 96 92 91 89 85 84 79 76 73 71 67 68 68 67 64 67 68 69 73 65 61 57 56 54 52 47
42 44 48 52 54 49 46 52 55 60 65 70 67 70 76 81 84 94 105 104 100 97 98 96 93 88 80 71 70 72 72 71 71 66 73 70 62 60 68 62 57 55 50 51
42 43 46 51 52 49 49 50 53 55 60 66 64 68 72 76 82 87 91 93 97 107 103 96 94 92 90 87 84 80 75 78 79 76 78 76 60 67 70 68 64 62 57 55
42 44 46 48 48 47 46 50 52 56 59 61 63 66 71 73 75 80 85 86 92 90 93 96 100 97 96 92 91 89 90 91 85 78 79 75 70 66 75 76 69 68 63 60
42 44 46 47 48 48 47 48 50 53 57 56 61 63 66 69 73 77 81 86 88 84 85 87 89 89 90 95 97 99 103 96 97 95 88 81 69 73 75 79 70 71 70 70
43 43 43 45 46 47 47 48 48 49 50 55 57 59 62 65 67 69 75 79 81 85 82 81 82 83 83 82 84 88 93 100 104 98 96 93 87 86 84 84 65 76 78 78
45 45 45 46 46 47 45 44 47 46 50 54 56 57 57 58 60 65 73 71 72 73 73 74 77 79 79 77 79 83 87 89 92 98 102 96 92 96 96 93 85 84 84 82
47 48 47 46 47 47 45 42 42 43 48 50 52 53 54 55 59 64 64 63 67 65 68 68 71 72 74 75 77 82 84 85 85 87 87 86 88 93 95 99 98 96 93 91
50 52 52 52 51 50 46 44 45 44 44 49 49 49 53 55 59 60 58 60 62 59 59 65 68 67 67 70 72 77 78 79 80 82 76 79 88 87 89 99 104 103 98 97
44 46 49 52 53 52 50 49 48 43 43 46 49 53 54 60 62 61 58 61 57 56 55 58 62 62 62 61 64 70 76 75 73 72 76 81 83 85 92 98 98 102 107 103
34 38 42 44 46 48 46 52 51 49 50 47 48 48 53 55 59 62 63 64 60 58 57 54 54 55 55 56 59 63 67 69 70 71 73 77 83 88 92 93 93 92 90 89
25 28 32 36 38 40 41 42 40 40 40 45 47 47 51 51 56 61 66 66 63 61 59 57 50 52 53 52 55 57 62 66 65 67 71 75 76 86 90 91 94 91 88 84
22 25 28 30 33 32 34 37 42 42 43 46 45 48 52 58 63 65 63 55 56 53 52 51 49 53 56 50 51 55 58 63 64 67 65 72 73 87 85 89 89 91 88 79
21 24 27 29 29 32 37 39 39 40 40 41 45 46 47 44 38 45 48 50 47 45 43 41 45 52 53 52 52 56 58 59 63 59 57 68 72 86 80 81 84 87 81 77
19 22 25 27 29 31 31 31 32 34 34 35 32 31 31 36 35 36 40 40 38 38 38 41 45 48 48 45 49 55 57 56 57 56 58 60 66 77 77 76 77 76 74 73
21 22 23 24 25 25 26 27 28 26 24 30 33 30 31 31 34 35 35 35 36 37 39 42 42 44 41 45 51 56 56 57 56 53 52 51 56 63 66 69 69 69 68 73
27 27 28 29 30 30 29 29 28 29 29 31 32 33 34 31 31 34 37 38 39 41 41 41 40 38 40 44 48 52 54 55 55 52 50 48 51 56 59 64 66 65 60 64
25 27 26 27 29 29 30 31 30 30 30 29 30 32 33 34 35 36 37 38 37 39 37 36 36 38 38 39 42 45 46 48 48 49 50 49 49 54 53 59 61 63 65 68
28 29 30 29 30 29 29 29 29 29 28 28 29 28 26 27 26 27 28 31 30 30 30 33 31 31 31 35 37 39 41 43 45 49 51 51 52 54 58 61 65 67 70 70
27 28 30 29 29 28 28 27 27 25 24 23 22 22 22 23 23 24 24 24 24 27 27 27 26 28 31 34 36 38 40 45 46 46 49 52 54 53 55 60 65 66 70 70
27 28 28 28 30 30 29 29 29 28 26 25 24 22 21 21 20 20 20 19 19 20 21 22 24 26 29 31 32 34 37 37 37 42 44 49 52 52 51 54 59 62 64 66
30 31 31 31 32 33 33 32 31 30 28 26 25 22 20 17 14 13 13 11 10 12 13 15 17 20 23 27 30 32 37 40 42 43 42 42 48 52 54 55 56 60 63 66
29 28 29 30 30 28 26 24 23 21 19 18 17 16 14 12 11 8 6 5 5 3 3 5 8 12 15 18 21 26 31 35 38 39 40 42 43 47 50 53 57 60 62 65

GFSNW_250_spd_060.txt.gz
Wind_Speed
68 69 69 68 67 65 61 57 54 64 67 64 60 61 70 81 82 80 86 80 79 78 81 76 74 72 71 64 64 62 61 57 55 58 55 54 52 51 49 40 40 34 34 41
67 65 64 63 61 58 55 49 50 59 60 57 62 63 75 80 84 83 87 82 83 86 81 79 83 77 72 72 69 61 64 59 61 64 58 51 47 49 50 48 46 41 40 39
63 61 59 57 55 52 48 44 46 53 49 55 64 67 76 78 83 80 87 86 85 83 82 83 80 80 78 75 71 71 70 63 66 67 67 64 57 53 52 52 47 45 39 42
57 54 53 52 50 46 40 38 42 48 44 56 66 71 73 79 83 81 79 80 91 89 81 76 77 77 75 73 71 68 68 66 69 67 67 63 54 57 59 51 53 50 49 48
51 49 48 44 42 37 33 36 41 46 52 61 65 69 70 75 82 83 81 79 82 82 81 84 82 79 74 71 72 72 73 72 65 69 64 60 56 61 60 57 56 51 53 51
46 43 40 37 35 32 37 39 40 45 54 57 57 65 72 75 80 82 86 87 81 81 78 84 83 80 80 77 75 77 77 78 78 75 72 70 71 71 70 63 62 59 57 57
41 39 37 33 30 35 39 40 41 45 52 51 57 66 71 76 78 86 86 83 88 84 79 76 79 81 77 76 77 79 82 80 80 79 77 75 78 76 73 64 64 64 62 61
39 37 34 32 31 34 38 41 39 45 50 52 56 62 68 73 75 79 81 84 87 85 84 83 81 79 74 71 72 70 71 72 68 71 77 71 68 73 64 63 61 65 62 60
39 38 36 33 33 35 39 41 43 44 47 50 57 61 65 68 73 77 80 79 77 78 82 86 87 87 85 82 79 77 75 72 69 66 67 60 62 66 66 68 59 68 64 64
37 37 36 34 33 36 38 43 45 45 45 50 55 59 62 65 68 73 77 74 74 74 74 78 82 88 90 90 90 90 90 89 89 84 89 81 74 72 74 75 73 77 73 70
38 37 36 35 35 37 39 42 41 44 48 53 55 57 58 63 66 71 75 69 70 72 73 74 76 78 83 88 95 102 101 98 95 91 90 85 88 89 90 88 81 77 76 73
39 39 39 38 37 38 40 40 42 45 47 48 50 53 58 61 65 70 69 69 68 69 69 70 74 76 79 79 81 84 87 89 91 90 90 90 93 95 97 99 98 94 88 87
41 41 41 40 40 40 40 41 43 44 46 48 49 52 57 59 62 64 62 63 66 66 70 70 72 73 75 76 76 78 79 81 81 80 82 82 84 87 95 99 104 106 97 94
43 44 44 43 42 40 37 46 44 43 45 48 48 49 49 54 56 57 59 63 62 64 65 67 67 68 70 72 72 72 75 77 79 77 78 78 80 78 80 84 87 94 98 103
40 42 45 47 47 45 40 42 48 51 51 49 48 48 50 51 53 53 54 56 56 56 58 58 60 62 65 67 68 69 72 75 75 74 74 76 80 77 78 81 80 82 85 89
34 38 41 43 46 48 46 45 44 44 49 49 49 49 50 50 51 50 50 49 49 49 52 53 54 58 62 62 61 62 68 72 72 70 72 71 73 75 75 76 78 83 81 81
29 32 35 38 39 41 46 50 50 48 48 49 51 51 49 48 46 45 45 45 47 46 46 46 49 54 59 57 56 58 62 65 66 67 67 66 65 71 73 74 74 78 82 82
27 30 32 34 37 40 44 48 45 45 46 50 53 52 55 51 47 49 50 51 52 49 49 46 48 53 56 54 54 56 59 57 57 58 60 63 62 65 67 67 72 75 78 83
24 26 30 32 34 34 37 37 39 41 41 43 48 52 54 54 54 55 54 53 55 56 50 50 51 53 51 51 49 53 58 57 54 52 54 57 59 60 63 64 67 71 77 83
18 21 24 26 26 30 32 34 35 35 37 41 42 45 44 46 48 48 52 50 52 46 45 46 42 40 39 43 47 51 55 56 55 54 56 57 59 56 57 61 61 68 72 79
19 20 23 26 29 28 26 28 30 32 29 30 32 33 34 38 42 42 41 42 42 41 38 38 39 35 36 39 45 50 50 50 52 54 54 57 56 52 52 55 58 61 63 71
24 27 27 27 26 26 26 25 25 25 27 30 29 32 33 31 34 36 37 36 37 39 39 37 36 37 36 38 40 42 45 48 50 51 52 53 52 51 50 51 53 57 60 64
21 21 23 24 28 32 33 33 33 33 30 29 30 29 29 30 30 30 34 35 34 32 32 33 32 31 31 34 35 37 39 39 41 45 49 51 52 52 53 56 56 58 59 61
26 27 27 25 23 22 22 21 22 22 22 23 24 24 23 24 23 24 24 22 20 22 24 26 29 28 26 27 30 32 34 36 39 43 46 50 51 53 55 56 57 60 62 63
28 28 29 29 28 27 27 26 26 24 23 22 22 20 19 18 15 14 13 14 15 18 19 17 18 20 22 25 28 31 33 36 38 41 46 49 50 51 52 54 56 58 60 61
29 29 30 29 29 29 29 30 30 28 27 26 24 24 22 20 18 15 13 12 10 9 10 11 14 16 19 22 24 27 30 33 36 39 42 44 44 46 48 51 54 56 59 60
28 28 28 28 28 28 28 27 27 26 24 23 22 20 17 16 14 12 10 7 7 7 9 11 13 13 15 19 23 26 31 34 36 38 40 41 42 42 43 45 47 50 52 53

GFSNW_250_spd_063.txt.gz
Wind_Speed
74 73 70 68 67 63 58 52 48 59 56 48 44 41 52 61 70 76 87 88 79 79 76 74 71 75 65 59 68 64 62 64 56 51 50 50 46 41 41 42 42 42 39 34
68 67 64 65 64 59 52 48 48 54 48 43 46 47 58 65 70 76 87 87 83 83 79 80 77 76 66 66 69 67 65 58 59 55 54 51 52 51 50 51 49 47 45 39
63 62 62 60 57 51 44 43 45 49 43 44 44 50 60 68 72 75 82 92 91 90 85 77 74 75 74 68 69 70 68 67 62 59 55 52 56 58 53 46 44 45 43 45
57 56 55 52 48 45 38 40 44 45 41 44 47 55 64 71 72 74 81 92 93 91 91 85 79 81 77 74 66 68 66 68 67 67 62 53 51 52 54 48 50 47 46 44
49 49 46 44 42 38 33 41 44 40 42 42 49 56 65 71 75 72 79 87 89 89 89 83 77 84 81 78 73 71 71 68 66 62 65 61 53 53 56 57 57 57 54 50
45 42 40 40 38 34 38 41 38 38 42 44 47 57 67 72 73 72 76 86 87 89 90 84 82 80 80 80 80 79 75 73 69 71 69 66 63 63 61 60 63 63 59 52
40 38 36 35 33 35 37 35 32 37 42 44 50 60 63 65 69 73 74 82 90 86 83 89 90 88 85 84 82 76 77 81 78 74 73 70 70 69 69 68 68 63 55 58
35 34 34 33 33 34 35 30 32 39 40 47 48 56 59 61 66 70 73 76 78 79 83 84 86 83 83 84 84 77 76 77 76 79 74 72 71 71 65 65 67 67 67 67
31 32 32 32 33 33 32 30 33 39 40 45 48 53 54 59 63 68 71 70 68 73 78 81 79 78 90 87 83 78 77 75 74 72 77 75 75 76 78 80 79 79 75 73
31 32 32 32 33 32 31 31 35 39 45 41 43 49 52 55 61 66 68 67 64 67 74 78 77 73 76 75 83 84 82 84 81 82 81 76 77 81 85 87 79 80 80 78
32 32 32 32 31 31 32 33 36 41 44 43 45 50 52 55 58 63 66 62 63 65 68 74 78 79 79 77 76 77 77 82 86 85 82 78 81 84 85 83 76 74 73 76
31 31 30 30 31 32 32 35 38 41 43 44 46 49 53 56 58 58 58 60 61 62 64 67 73 77 79 81 79 78 79 79 77 77 78 73 74 77 76 77 75 70 68 71
32 32 32 32 33 34 34 37 38 40 43 45 44 47 51 55 57 58 60 59 58 61 64 66 68 70 74 77 80 82 85 84 85 86 87 87 83 85 86 86 84 84 83 83
33 33 33 33 35 36 36 37 39 41 43 45 48 49 51 52 53 57 59 58 57 58 59 62 66 69 71 73 74 75 78 81 83 87 91 95 94 92 94 97 98 98 99 97
33 36 36 34 35 38 40 39 40 42 42 43 45 49 51 52 52 53 55 52 51 55 59 62 64 66 65 67 67 70 73 76 78 82 83 85 86 87 88 89 93 99 100 98
31 34 37 39 38 35 42 41 39 39 41 43 45 47 48 48 49 50 48 48 48 51 53 57 59 61 64 66 67 69 72 74 77 78 81 81 81 81 81 80 81 83 84 83
30 31 35 38 36 37 41 43 46 43 42 43 43 43 44 44 44 44 43 42 43 45 48 51 55 57 58 59 64 68 69 71 72 73 76 75 75 76 76 76 76 76 78 78
28 30 32 33 35 39 41 46 45 44 44 42 40 41 42 42 41 40 41 42 43 44 46 49 50 54 54 50 52 58 61 64 66 70 71 71 71 72 72 71 69 69 68 71
24 28 29 30 33 36 38 40 45 47 42 39 39 39 40 40 38 36 35 36 38 39 40 43 48 50 48 46 51 55 59 61 63 65 65 66 65 66 65 63 65 61 62 67
22 25 28 28 29 34 36 38 37 40 45 44 44 44 46 41 39 39 39 37 37 36 37 38 40 43 46 46 51 57 59 63 64 62 60 58 59 58 56 57 57 54 59 63
21 22 24 27 28 29 28 29 32 34 36 43 50 50 51 48 47 46 43 40 40 40 41 42 43 42 40 43 45 48 50 55 58 59 59 56 55 56 56 55 53 55 56 57
22 25 26 26 25 25 27 26 27 28 30 33 36 41 43 44 46 46 45 47 46 46 46 43 40 43 39 34 35 38 41 46 49 50 50 50 51 53 53 53 54 54 54 55
25 28 28 27 28 27 25 22 21 25 29 33 33 33 34 33 35 36 38 39 42 39 38 38 38 35 33 32 31 31 33 36 40 41 40 40 42 45 47 49 50 50 52 54
22 24 26 26 26 26 26 25 25 22 23 24 23 23 22 23 24 25 24 23 25 27 26 24 23 23 23 23 26 28 29 30 31 32 33 35 37 39 42 45 48 50 51 52
27 27 26 25 25 24 24 22 22 21 21 20 19 19 18 17 16 15 13 13 13 15 15 16 16 16 17 20 23 25 27 29 30 31 32 34 36 39 42 43 45 46 48 50
29 29 28 27 26 26 26 25 24 23 22 22 22 21 20 20 19 19 17 16 16 15 14 14 14 16 17 19 21 23 25 25 28 30 32 34 36 38 40 42 45 48 51 53
32 31 29 28 27 27 27 27 26 24 23 23 21 21 19 18 16 15 14 13 12 10 9 10 12 13 15 17 20 23 26 28 31 33 35 36 38 40 42 45 48 50 53 55

GFSNW_250_spd_069.txt.gz
Wind_Speed
68 72 71 73 75 75 74 75 73 78 76 70 66 63 65 60 58 56 52 56 63 68 65 62 78 83 83 75 63 59 67 66 62 57 55 58 59 58 57 55 59 56 54 52
62 65 65 66 68 69 69 67 67 68 65 63 63 63 60 55 56 55 53 55 63 69 66 67 76 87 82 80 72 65 62 63 63 61 56 55 59 58 57 55 56 57 52 51
52 54 57 59 59 58 58 59 61 64 60 62 58 57 58 54 58 57 56 58 64 69 68 69 71 87 86 80 76 71 63 64 66 59 56 55 56 59 56 57 56 57 55 56
45 45 47 47 49 49 46 47 55 58 57 61 57 56 55 57 61 59 58 59 63 70 68 68 70 90 93 87 76 77 66 64 63 64 60 55 55 57 56 57 57 58 58 58
38 38 37 39 40 41 39 46 51 52 54 54 54 53 54 56 56 56 57 59 63 70 66 68 72 92 89 88 83 79 80 72 67 64 61 63 63 59 56 59 59 59 62 59
33 33 33 35 36 37 41 45 49 49 51 53 52 51 52 55 53 54 55 58 62 67 66 69 75 84 90 92 86 87 80 81 74 69 63 67 63 66 64 61 59 63 66 67
28 28 30 32 32 37 42 48 46 46 51 46 46 47 49 49 49 51 52 55 60 66 63 68 75 82 96 95 89 83 79 76 76 73 71 66 62 64 64 64 66 66 66 67
25 26 27 28 32 37 43 43 42 43 40 42 42 43 44 43 45 47 51 54 57 64 64 67 76 83 89 96 90 85 83 75 72 75 77 75 71 64 68 66 66 68 69 70
23 23 25 26 30 35 37 37 35 39 37 41 37 35 38 41 43 45 49 53 58 63 66 69 78 87 91 91 92 88 87 81 75 74 76 77 78 75 72 71 71 70 68 70
22 23 25 28 31 33 33 30 34 36 36 34 35 39 41 41 44 49 49 54 58 60 61 67 75 87 90 90 85 90 84 80 77 77 76 78 77 80 80 76 76 72 71 70
20 23 25 27 29 30 28 31 33 32 30 32 34 34 35 40 43 45 48 52 55 60 62 68 75 83 91 91 88 87 86 83 83 81 78 77 77 78 83 82 81 77 79 78
19 21 24 26 27 27 28 30 29 27 29 30 32 34 35 37 40 41 43 46 53 60 62 67 74 80 90 91 90 88 85 87 86 87 84 81 78 79 85 82 77 77 76 76
21 22 24 25 26 26 27 26 26 28 29 30 32 32 32 35 37 39 38 43 55 59 62 67 73 78 84 91 94 90 90 88 88 87 89 87 83 84 86 88 87 87 85 83
24 25 25 25 25 25 26 27 27 27 27 26 25 29 32 33 36 37 38 47 53 58 62 67 73 78 81 86 89 92 92 89 89 92 88 87 92 91 91 93 96 97 94 94
25 26 27 29 28 27 26 25 25 24 25 25 25 27 32 33 34 36 41 46 52 56 60 64 69 76 79 82 83 84 86 89 91 92 95 95 91 94 97 95 94 97 98 99
27 28 28 28 29 27 24 23 23 24 26 25 28 30 33 33 35 38 42 45 49 54 59 61 63 68 74 80 83 85 85 87 87 85 87 89 91 95 94 93 95 95 95 95
28 31 31 30 29 28 28 30 30 30 29 29 30 31 32 32 34 38 43 45 48 52 56 59 61 65 68 74 79 82 82 84 87 90 92 92 93 95 96 95 95 96 97 100
29 32 36 35 32 30 31 30 28 29 30 31 32 32 32 33 34 37 42 45 47 50 54 57 60 60 62 64 71 77 78 81 86 90 91 91 92 94 97 97 98 98 97 97
32 34 36 36 36 33 31 29 30 29 30 31 32 33 33 33 33 33 36 41 45 49 52 53 54 56 58 63 67 68 69 71 74 76 77 79 81 82 83 85 87 89 91 93
31 34 35 36 37 37 33 32 31 28 27 28 28 30 33 33 34 35 36 39 43 47 50 52 52 54 56 59 62 64 66 68 70 71 72 75 76 79 82 84 85 87 87 89
28 29 34 38 40 37 31 29 26 25 24 25 27 29 28 29 31 33 34 37 39 42 43 43 45 48 53 57 60 62 64 66 68 70 73 76 78 80 80 80 80 81 81 81
31 33 35 36 37 32 29 26 27 27 27 28 25 25 26 27 27 29 31 31 34 37 40 41 43 50 52 55 58 60 62 64 66 68 71 72 73 74 73 72 71 70 69 68
23 25 28 30 27 27 28 28 30 29 29 28 26 26 25 25 26 26 28 31 33 34 35 38 43 45 46 48 51 54 57 59 61 61 60 60 60 60 61 62 63 62 60 59
26 28 31 31 30 33 36 36 33 31 30 28 27 25 25 25 26 25 24 26 27 30 34 37 38 43 45 47 49 51 54 57 59 60 60 61 61 60 60 59 58 57 54 53
25 26 29 31 35 37 38 38 36 35 33 30 29 27 26 25 21 22 23 26 29 31 33 34 35 35 36 39 42 44 46 47 48 49 50 50 51 51 52 52 51 50 49 49
27 27 27 28 30 33 35 37 38 39 37 34 30 27 25 23 23 21 20 21 22 23 24 24 25 26 28 30 31 33 36 39 41 43 43 44 45 46 46 46 47 47 48 48
28 28 28 30 31 32 31 32 31 30 28 26 23 19 19 21 21 21 19 19 19 20 22 23 24 25 25 26 27 28 30 32 35 37 39 41 42 43 44 46 46 46 47 47

GFSNW_250_spd_072.txt.gz
Wind_Speed
59 59 60 61 62 65 63 64 64 73 77 76 73 73 78 78 76 73 71 69 66 59 55 46 48 52 51 56 67 68 62 59 55 60 59 60 55 52 52 53 49 48 48 53
54 55 57 54 57 60 58 54 60 66 71 65 65 70 71 70 69 65 63 59 56 53 51 47 52 55 56 70 77 70 64 54 55 58 57 58 58 56 56 51 55 53 47 46
49 49 49 48 49 51 49 48 52 59 59 62 63 62 62 63 63 60 57 53 53 51 48 47 55 58 59 78 83 76 68 57 59 57 64 57 56 60 52 56 55 55 50 53
45 42 41 43 44 44 40 42 49 53 53 56 58 58 57 55 56 58 56 53 52 50 47 50 56 60 62 79 84 83 75 67 56 63 62 63 57 58 60 59 53 54 55 55
39 38 38 37 36 35 36 42 46 47 47 48 49 51 53 54 55 53 50 48 50 49 47 51 55 61 63 73 80 86 77 68 63 63 60 68 70 66 63 57 57 53 56 58
35 34 33 31 31 34 39 41 40 40 43 43 42 48 53 53 53 50 49 47 48 50 52 51 52 59 66 75 81 84 81 75 69 69 71 67 62 60 57 55 53 52 57 56
30 28 28 29 30 34 37 37 34 38 41 41 45 46 46 47 49 46 45 44 48 50 50 55 54 61 67 74 78 88 82 79 67 72 69 68 67 62 58 55 49 53 55 59
25 25 25 26 28 31 33 32 35 38 37 40 42 41 43 45 45 45 42 42 45 50 51 53 54 59 64 73 83 85 93 86 78 64 68 61 65 68 64 58 55 62 64 62
22 22 23 24 26 27 28 29 30 33 33 39 35 35 38 38 39 40 42 46 50 49 51 50 52 58 66 74 78 91 96 89 78 80 70 73 71 56 58 59 60 70 75 63
21 20 21 23 24 24 24 24 24 25 27 32 34 36 34 34 36 39 40 44 46 47 49 49 53 60 70 77 77 86 95 91 83 86 76 70 72 70 68 65 72 69 67 62
19 20 19 21 21 21 20 20 24 25 26 29 29 29 33 35 35 39 44 45 45 45 46 50 53 61 69 75 77 80 96 95 86 83 88 76 76 77 70 74 74 70 65 68
18 19 19 18 18 17 19 22 22 23 28 26 29 31 32 34 37 39 39 41 44 45 49 53 55 63 68 75 79 75 95 96 98 88 85 82 87 84 84 80 81 76 74 73
20 18 18 17 16 17 18 20 22 24 25 28 32 31 29 31 33 35 38 39 42 45 50 52 56 63 66 74 81 78 84 90 85 88 91 87 84 84 78 78 83 84 80 79
22 20 18 17 16 17 19 19 21 22 24 24 24 28 29 30 33 35 36 36 44 47 51 55 57 62 67 76 87 84 83 90 87 85 83 91 88 88 82 80 79 81 83 85
24 22 21 18 17 18 19 18 19 21 21 22 23 26 28 28 30 30 34 39 43 45 48 53 55 60 66 77 84 87 83 82 87 85 89 91 89 90 85 84 84 83 83 84
25 25 22 20 19 18 21 22 24 24 24 24 24 25 27 28 31 34 36 38 41 43 46 52 56 62 65 75 81 82 85 85 85 85 87 85 85 88 87 86 89 90 91 90
25 28 26 23 23 25 26 23 23 23 24 24 24 24 25 28 31 33 36 39 42 43 45 50 56 58 63 72 78 80 85 85 86 88 87 87 88 88 89 90 91 93 93 95
28 29 30 27 24 24 23 22 24 24 23 23 24 25 25 26 28 31 34 37 39 41 45 50 56 60 62 65 78 82 79 82 86 89 88 89 91 91 92 93 94 96 99 100
30 31 30 27 25 22 24 26 24 25 27 27 27 27 27 26 28 30 33 36 37 40 44 48 52 56 59 61 70 79 79 79 79 79 82 85 89 92 97 98 98 100 101 103
29 30 29 28 28 25 24 25 25 24 25 25 26 27 28 28 28 29 30 34 38 41 42 43 47 54 58 60 63 68 76 80 81 80 81 82 83 86 89 92 94 97 99 101
29 32 32 29 28 25 22 22 24 25 25 25 26 26 28 28 27 27 28 31 34 38 38 41 45 49 53 56 59 62 65 70 75 78 79 80 82 85 89 91 91 92 93 94
32 35 33 29 26 24 22 24 25 25 24 25 25 25 25 26 26 26 25 27 29 32 35 38 42 49 51 54 57 58 60 62 65 67 71 74 77 80 81 83 86 88 88 90
27 28 27 26 22 23 23 25 25 27 28 28 28 28 27 27 28 28 27 28 30 31 32 36 42 44 45 49 53 56 59 61 64 67 70 73 74 76 78 79 81 83 83 83
22 24 24 22 23 27 31 33 32 26 24 23 22 23 23 23 24 25 26 27 27 29 34 37 36 40 43 47 52 56 59 61 62 63 65 67 69 70 71 72 73 73 73 72
26 25 24 27 29 29 28 26 25 22 23 23 23 22 21 22 22 22 22 23 26 29 30 33 37 40 42 44 47 49 51 52 54 55 56 57 59 61 63 64 65 66 67 68
23 24 28 28 27 30 32 30 28 26 24 22 21 20 19 19 21 22 24 26 27 30 33 34 36 39 41 43 45 48 50 52 54 56 57 58 58 58 57 57 58 59 59 61
23 24 24 25 27 30 31 31 28 27 25 22 21 19 19 19 20 22 22 22 23 25 28 30 31 31 32 32 32 33 34 35 37 39 42 44 46 47 49 51 53 55 57 57

GFSNW_250_spd_075.txt.gz
Wind_Speed
62 59 59 59 59 58 58 54 53 70 60 63 61 60 67 71 79 75 75 78 76 75 75 71 61 51 49 47 46 47 42 48 55 59 60 68 59 52 47 47 43 39 34 35
56 55 54 54 53 52 50 47 51 56 56 51 53 59 63 65 67 68 69 68 71 72 70 63 57 50 47 48 47 47 43 61 59 59 64 68 62 56 49 47 42 39 40 35
52 50 49 48 47 45 43 39 43 47 49 45 47 52 58 61 63 64 63 63 63 61 61 55 51 49 45 47 48 50 47 71 69 65 70 68 65 57 52 51 46 42 41 44
49 45 44 43 41 39 37 33 41 43 44 40 44 50 52 56 60 58 55 58 57 57 54 52 43 46 46 44 48 54 52 77 70 69 70 74 66 62 61 51 46 46 44 48
42 41 39 39 37 33 34 35 37 36 36 35 41 43 47 48 53 56 51 51 50 49 47 45 37 43 43 47 55 60 61 81 74 74 70 72 73 67 64 56 54 50 48 50
37 36 35 34 33 32 31 30 31 32 32 35 38 40 42 47 48 48 48 47 44 44 45 44 41 45 42 50 55 61 62 78 79 77 75 72 68 73 63 61 58 53 55 51
33 33 33 30 30 27 26 25 27 28 28 33 37 38 38 41 42 43 44 41 41 42 46 45 44 43 45 50 58 66 66 81 79 76 77 66 67 73 64 65 62 58 59 54
30 29 29 28 25 23 22 22 23 22 27 31 33 35 35 37 38 40 42 41 43 43 42 43 42 42 44 50 59 68 78 85 81 76 67 62 69 71 67 62 58 58 65 62
26 26 25 24 22 18 18 18 20 20 25 27 25 30 35 36 35 37 39 42 44 43 41 38 39 42 46 50 62 68 80 83 84 80 74 67 68 71 72 68 64 59 62 65
24 22 21 20 18 16 15 16 17 19 19 22 26 28 31 33 33 36 38 42 42 41 38 41 45 46 48 52 60 66 74 90 86 87 78 70 61 67 69 75 73 70 70 74
24 19 18 16 15 13 15 17 17 17 21 24 26 28 31 32 34 35 37 37 41 42 41 45 45 45 52 55 61 68 75 90 91 88 80 73 67 66 67 67 68 71 70 74
24 19 16 13 12 14 14 16 17 20 22 23 26 28 31 34 34 36 37 41 34 36 38 44 44 45 51 56 57 66 74 87 92 90 91 79 71 71 70 69 74 75 74 78
23 19 15 12 12 13 17 18 19 20 20 22 24 25 29 31 33 35 39 34 36 37 41 43 45 47 49 54 59 62 68 81 84 83 87 87 79 74 63 73 74 67 73 69
22 19 15 12 13 16 15 16 18 17 17 20 25 27 27 28 31 32 29 30 34 36 38 40 44 48 51 54 58 62 74 78 82 86 88 84 88 86 78 72 74 78 74 75
21 20 14 13 14 14 15 16 17 16 20 23 22 23 26 27 28 29 32 31 34 37 38 40 41 46 50 55 58 65 70 80 81 81 95 90 100 96 86 84 83 80 78 77
19 21 17 15 16 17 19 19 19 20 21 20 22 25 23 23 25 28 29 32 32 33 35 39 44 48 52 54 62 68 70 83 84 83 84 97 101 103 92 84 84 88 91 91
23 22 19 18 19 18 16 17 19 19 20 20 20 21 23 22 22 26 28 29 33 37 39 41 45 51 53 54 60 64 67 74 80 82 84 79 88 94 94 92 89 91 94 93
26 26 22 21 19 17 19 19 19 20 20 19 21 22 21 21 22 24 27 29 32 35 38 39 41 46 52 52 54 57 60 68 78 82 82 79 73 85 95 93 95 92 93 95
26 27 22 22 21 20 22 20 20 21 22 23 23 22 20 20 22 25 28 30 32 33 36 39 40 44 48 50 55 60 59 65 74 81 82 81 80 77 81 91 89 86 90 92
26 25 25 24 22 22 22 22 23 22 23 22 21 22 22 21 22 25 26 26 29 33 35 36 39 43 49 52 55 60 59 62 70 78 82 84 83 81 81 82 84 88 93 92
26 26 24 25 26 23 22 25 25 25 25 23 22 21 19 21 21 21 22 24 26 26 27 30 34 38 43 49 51 54 58 57 63 72 79 83 86 87 88 88 88 89 92 95
30 28 25 25 29 25 25 25 24 24 24 23 22 20 21 20 21 21 21 22 22 23 25 29 33 36 39 44 48 51 55 56 56 61 71 79 82 84 85 85 86 87 89 91
22 20 20 27 32 30 27 27 28 29 29 27 25 21 20 20 21 22 21 21 22 21 23 27 30 29 32 37 41 46 50 54 56 58 61 67 76 82 86 87 87 87 88 89
22 22 23 30 35 35 34 33 29 25 24 25 25 24 23 20 19 19 20 19 18 22 26 25 25 29 32 37 41 45 49 52 55 59 62 65 68 72 75 78 80 83 85 86
24 22 25 31 36 34 28 24 25 24 22 21 20 19 19 19 17 17 17 19 21 21 22 26 30 32 35 38 41 45 48 50 53 57 59 62 65 67 69 72 74 77 79 82
25 26 30 32 33 32 29 26 27 26 23 21 20 18 18 17 17 17 18 18 18 21 22 25 28 31 34 36 39 41 43 46 48 51 54 56 59 61 63 64 66 69 70 72
24 26 27 30 35 34 32 29 26 24 23 21 20 18 17 16 16 17 17 18 20 22 24 26 27 30 33 36 38 40 43 46 48 51 54 55 58 59 61 62 63 65 67 68

GFSNW_250_spd_078.txt.gz
Wind_Speed
78 76 70 69 64 58 55 52 57 60 53 50 47 51 55 59 65 66 67 74 76 71 72 74 75 71 66 69 72 69 63 54 47 45 41 43 49 56 56 54 60 50 52 48
76 71 68 65 58 52 50 49 54 50 46 45 46 50 50 54 61 57 62 64 66 67 71 73 70 65 61 63 62 57 51 46 48 46 45 49 54 61 57 59 62 53 49 43
72 67 64 58 51 48 44 45 47 43 40 42 42 44 46 49 54 50 56 60 59 63 68 65 63 59 60 59 55 49 47 46 50 45 50 55 62 66 62 63 64 56 49 41
68 64 59 52 47 45 40 40 39 36 37 35 37 41 42 46 45 48 52 54 55 57 59 59 57 53 50 51 50 48 49 51 53 50 55 62 65 69 63 62 65 57 55 49
62 58 54 49 45 40 37 33 30 30 27 27 33 37 40 44 44 46 46 51 54 53 53 48 48 45 43 45 46 49 51 54 53 54 58 65 67 70 63 59 59 56 56 49
58 52 48 43 39 36 34 29 25 26 24 25 31 37 36 41 40 41 44 46 47 44 43 43 45 46 42 43 44 47 51 53 55 57 62 68 69 71 65 56 58 55 56 54
50 48 44 38 34 32 28 24 22 21 21 25 30 28 32 33 34 33 34 35 40 41 40 40 42 42 38 41 44 49 51 55 60 61 65 69 71 69 71 63 61 57 56 56
46 44 38 32 30 27 24 20 19 19 20 21 22 22 26 27 31 32 35 35 36 42 44 41 39 37 37 41 42 48 52 56 61 66 70 70 72 67 68 63 63 60 57 55
41 38 32 26 25 22 19 17 17 17 16 17 22 23 25 30 32 34 36 38 40 39 36 35 36 37 39 43 46 50 52 57 60 70 75 72 71 75 73 69 70 71 66 67
36 33 26 21 21 19 18 14 16 14 15 18 20 23 26 29 30 30 34 36 39 40 39 37 37 38 39 45 46 48 53 58 63 69 79 76 71 72 75 76 69 67 71 67
32 28 21 17 18 17 15 15 15 16 18 18 21 25 27 28 31 34 35 36 38 39 39 38 39 40 42 46 50 50 54 59 65 62 82 77 75 76 77 78 78 75 73 74
28 24 18 16 17 16 16 16 16 15 15 18 22 24 25 25 28 32 31 32 31 34 35 38 41 41 44 46 48 49 57 62 69 71 78 84 78 80 81 79 77 81 79 75
23 21 16 15 16 16 14 14 13 13 14 15 16 16 21 25 27 30 32 26 27 32 37 41 42 45 44 45 48 51 57 60 70 72 67 80 76 75 79 81 76 76 78 77
21 18 15 15 15 13 14 14 14 14 17 20 22 22 22 25 30 30 26 29 32 35 39 39 38 40 43 46 49 52 52 59 69 74 70 77 79 78 77 79 73 77 81 80
18 16 15 14 15 14 15 17 16 18 19 18 18 20 24 27 26 23 23 26 31 31 33 36 38 38 40 43 49 53 53 61 70 76 75 76 82 82 87 83 79 73 79 83
19 17 16 16 17 15 15 16 17 18 17 18 19 20 21 20 18 22 25 30 32 31 34 35 38 41 44 47 52 56 56 58 69 76 82 81 86 89 89 90 86 82 80 76
22 20 18 19 17 12 13 17 16 17 18 18 18 19 17 19 22 23 25 29 27 27 31 35 37 41 44 50 53 55 60 67 74 80 87 89 92 92 93 95 94 92 87 83
26 24 21 21 17 16 18 18 18 17 16 17 19 20 22 23 23 25 25 25 27 29 32 34 37 39 41 45 47 51 55 58 63 74 80 86 90 93 99 96 95 94 91 89
27 24 23 23 21 19 19 20 19 17 18 17 18 18 21 23 22 23 25 25 27 29 31 31 33 34 37 39 41 42 43 50 57 64 71 77 81 83 84 86 90 89 88 91
25 26 25 26 24 21 22 20 19 19 17 19 16 15 18 22 23 23 23 24 25 27 30 31 33 34 34 39 43 44 46 47 51 57 61 67 75 78 78 79 82 85 88 96
21 23 26 30 29 25 25 22 21 18 17 15 14 16 16 19 18 17 17 17 19 21 23 29 32 35 34 37 42 45 45 46 51 57 59 63 69 75 79 79 78 79 80 81
28 28 28 33 28 25 24 22 22 21 20 19 19 20 20 16 15 15 16 16 17 17 19 22 25 28 29 31 36 40 42 45 46 51 55 57 61 67 71 74 75 77 78 80
23 25 33 34 30 28 27 28 27 25 23 21 20 18 18 18 17 18 19 19 19 19 22 23 24 24 25 28 31 33 38 43 45 48 53 57 59 61 66 72 76 79 82 83
23 33 39 37 34 34 33 28 26 25 23 21 21 18 16 16 15 15 16 15 16 17 13 13 17 21 25 28 31 35 38 42 46 49 51 55 60 63 63 65 68 73 78 81
33 36 39 37 33 30 29 28 26 25 22 20 19 17 16 15 14 14 14 15 13 14 17 19 20 22 24 26 28 31 34 38 42 46 50 54 57 61 65 68 70 72 74 76
34 38 36 30 29 30 29 29 28 27 24 21 19 17 15 16 16 16 15 15 14 15 15 16 19 22 26 28 30 33 36 38 41 44 47 50 54 57 61 64 67 70 73 76
30 31 31 31 31 32 30 29 28 27 27 23 19 17 14 12 11 12 12 12 13 15 19 20 20 22 24 26 29 31 35 38 40 43 46 49 53 56 59 62 65 67 68 71

GFSNW_250_spd_084.txt.gz
Wind_Speed
114 117 115 106 97 89 79 78 79 72 69 67 60 52 47 43 40 33 36 37 39 45 51 54 56 61 68 71 72 70 69 64 66 66 62 58 56 55 51 47 41 30 31 32
113 110 102 94 87 78 76 76 73 68 65 60 50 45 43 40 38 29 35 36 38 42 48 53 54 58 61 67 70 70 68 67 65 62 58 53 48 47 43 39 32 30 30 35
102 96 91 83 77 75 74 69 70 66 59 49 42 39 40 34 32 28 32 33 38 44 45 50 53 57 56 63 63 67 69 71 68 65 59 54 51 49 45 39 32 31 29 44
89 85 79 75 74 73 69 67 63 57 46 39 37 34 34 29 28 27 30 32 40 41 42 46 52 52 51 54 60 65 64 65 69 67 62 58 54 52 45 36 34 30 38 50
77 74 72 72 72 68 65 61 55 47 41 37 32 29 30 26 25 24 29 29 33 34 38 41 45 47 46 52 54 53 57 55 59 64 60 56 55 48 39 33 37 31 48 62
70 69 69 70 65 64 60 54 48 42 34 32 28 27 25 23 23 23 29 25 30 31 33 35 40 43 38 44 42 43 48 53 54 54 49 47 47 42 37 36 40 40 57 73
67 67 67 63 62 60 53 47 41 36 31 28 25 22 21 21 21 22 25 24 27 27 29 32 36 38 39 42 44 46 47 45 45 49 44 43 42 41 37 43 41 52 64 71
64 64 62 60 56 55 46 41 35 30 28 25 22 19 19 20 15 20 22 23 24 25 27 33 38 42 43 47 50 44 42 44 46 47 46 42 43 41 42 44 41 57 69 71
60 57 57 55 51 48 40 35 30 26 24 22 19 17 19 16 18 24 26 28 25 26 28 32 36 39 42 43 44 44 39 39 43 46 45 44 47 43 43 44 42 64 72 67
54 54 52 50 47 41 33 30 28 23 22 17 14 14 14 16 22 24 24 27 32 33 31 33 35 39 40 42 43 37 37 40 42 44 44 46 46 45 45 44 52 66 74 66
51 51 48 45 41 36 28 26 25 22 18 12 9 12 14 16 18 20 24 28 27 30 34 35 36 38 39 40 38 36 39 40 41 41 41 45 45 48 47 50 62 69 74 70
49 47 43 41 36 31 23 24 22 20 15 12 11 11 12 15 17 20 23 23 24 27 29 31 34 37 41 40 39 40 38 38 38 40 42 48 49 52 54 58 71 71 76 74
45 42 39 35 31 26 22 21 20 18 15 12 12 10 10 14 15 19 20 20 21 25 29 31 33 37 38 39 37 36 37 38 37 38 44 46 51 54 57 63 75 75 77 79
41 39 34 31 27 23 20 19 18 13 10 10 7 9 13 13 16 18 19 21 24 28 31 34 37 40 40 38 39 38 37 36 37 38 42 46 53 56 61 74 79 78 83 86
37 35 29 27 23 21 18 18 16 12 7 5 6 9 12 14 15 18 21 26 30 32 33 35 38 39 36 35 35 36 35 36 38 39 44 49 57 61 64 79 83 83 86 86
34 30 24 24 19 19 18 17 14 11 7 5 7 9 10 13 16 21 27 30 30 31 32 33 34 35 35 34 33 35 36 38 37 39 44 50 59 66 67 80 88 87 89 90
31 25 20 22 18 19 17 16 13 9 7 6 9 11 14 19 22 26 29 30 30 30 31 32 33 34 35 36 35 37 42 43 43 43 45 52 59 64 66 72 89 88 91 92
27 21 20 20 18 19 15 15 13 9 8 10 11 13 16 20 25 27 29 27 26 26 27 30 31 33 34 35 36 36 40 45 49 49 47 52 57 63 69 71 79 92 90 90
24 20 20 21 19 19 14 14 13 11 11 12 13 15 16 18 22 24 23 23 25 25 26 26 25 28 30 32 33 34 36 38 43 45 49 54 59 64 69 74 76 79 92 95
23 22 21 23 18 18 13 14 15 12 13 13 13 15 16 17 17 16 17 21 22 23 22 21 20 23 25 28 30 32 35 38 40 41 44 49 56 59 64 68 74 77 78 84
24 25 25 22 17 19 14 13 15 15 16 14 13 15 17 16 15 14 17 20 21 21 20 18 19 22 23 24 26 28 30 32 36 40 42 43 46 53 58 61 66 74 76 78
28 26 23 14 16 18 17 17 18 20 20 19 17 17 17 16 14 14 15 17 18 18 18 17 19 19 20 23 25 27 28 31 33 35 40 43 45 48 51 55 60 64 69 75
23 22 17 15 19 20 22 21 20 20 18 17 18 17 16 17 20 21 20 18 18 16 14 14 16 18 20 20 21 22 25 29 32 35 40 45 49 51 53 57 59 60 63 64
20 19 22 24 29 26 22 20 20 17 14 14 16 18 20 21 21 22 23 22 21 21 19 20 22 22 22 21 22 23 26 27 29 33 37 40 45 50 54 57 60 64 67 69
27 31 36 36 26 24 25 25 21 17 16 16 17 14 13 14 16 17 18 19 18 18 17 17 16 16 17 17 18 19 21 23 25 28 31 35 39 44 49 53 57 61 65 68
34 31 27 23 29 29 28 25 24 21 21 21 20 17 17 18 17 16 14 13 12 11 9 8 6 7 8 9 11 14 17 20 23 26 28 32 35 39 44 48 52 56 61 65
22 22 25 29 29 29 28 26 24 24 23 22 20 19 18 16 13 12 12 11 11 10 9 8 8 7 8 9 11 14 18 21 25 29 33 38 42 46 49 53 56 59 62 65

GFSNW_250_spd_087.txt.gz
Wind_Speed
102 103 106 105 106 106 101 99 91 84 79 75 70 65 60 56 48 39 37 36 34 35 37 43 49 49 53 56 59 60 64 70 72 73 76 76 73 75 74 67 63 59 57 56
102 106 102 101 100 95 94 87 83 76 72 67 63 59 52 47 41 34 32 33 32 33 40 43 46 48 51 62 61 62 65 65 66 66 66 67 67 64 62 64 62 57 47 44
97 96 97 90 91 88 82 79 74 72 63 61 57 51 44 39 36 32 29 29 32 35 39 40 44 48 57 62 57 59 63 66 66 64 61 60 59 58 54 49 41 38 36 37
85 86 85 83 81 76 74 69 67 64 61 57 48 42 38 34 31 28 28 28 28 33 37 39 42 50 56 61 57 57 60 64 63 61 60 57 53 50 45 40 38 31 35 28
82 83 79 76 75 71 67 65 61 59 56 49 42 36 30 30 28 27 25 24 26 30 37 40 43 49 58 55 47 54 56 59 60 57 56 56 53 51 45 39 35 35 33 35
78 75 73 68 67 63 62 58 58 55 48 42 36 31 28 25 24 24 20 22 22 28 32 36 38 40 44 40 44 45 49 48 50 51 50 55 55 52 48 45 38 37 33 33
71 68 66 61 59 60 57 56 53 48 43 37 31 27 23 20 20 20 18 19 21 27 33 33 34 34 31 34 38 37 45 43 44 47 51 53 53 53 53 50 44 37 37 39
66 64 59 55 56 57 53 53 47 41 35 31 26 22 17 14 18 18 18 18 19 28 30 31 32 30 31 36 39 38 39 39 40 43 48 51 52 54 49 52 46 43 41 46
59 54 53 54 53 53 52 48 43 36 29 25 21 19 12 15 17 17 18 18 20 27 31 33 34 36 38 41 44 46 48 47 46 45 47 48 51 49 45 45 43 40 46 51
52 51 51 50 50 50 46 44 37 32 26 22 19 17 13 15 13 13 15 16 20 27 31 34 36 38 39 42 45 44 45 47 47 46 44 47 49 47 43 43 42 44 46 49
51 50 49 48 47 47 41 40 33 26 21 19 17 16 15 12 9 11 14 20 23 27 33 34 36 37 37 39 42 41 40 42 41 41 43 46 47 45 43 41 41 44 48 48
50 48 48 46 44 41 38 35 28 22 17 16 14 13 13 9 11 12 14 16 19 23 29 32 34 36 36 38 40 39 40 38 37 41 45 45 45 44 45 44 46 48 49 56
48 47 46 43 41 37 34 30 23 19 15 14 10 11 10 9 11 13 14 17 19 22 26 30 34 35 36 35 35 37 38 37 37 40 41 41 41 44 46 47 50 52 57 64
46 45 43 40 36 34 29 25 19 16 14 12 9 8 9 11 13 13 15 20 22 23 25 29 32 34 32 34 35 36 36 35 35 37 36 38 41 44 47 50 54 57 67 70
44 41 39 36 33 30 25 21 14 12 13 11 11 9 10 12 14 16 21 23 24 24 26 28 29 31 32 33 34 34 34 35 34 33 35 40 41 45 48 54 58 62 74 76
41 38 36 32 30 25 22 17 11 10 10 12 11 10 12 14 15 19 22 22 24 26 27 28 28 30 32 34 35 34 32 32 32 32 35 39 41 45 52 58 64 68 81 82
38 35 32 30 25 23 19 15 10 9 11 13 13 12 14 17 20 22 21 20 21 23 24 25 25 27 29 31 31 31 31 32 32 33 35 39 44 48 53 58 66 73 81 86
36 32 31 27 23 21 16 13 10 10 12 13 14 14 16 18 20 22 23 22 22 22 22 21 23 26 30 32 33 32 32 34 34 35 37 37 40 47 51 56 65 73 78 87
32 30 29 25 21 20 14 11 11 10 12 12 13 13 15 17 19 19 17 18 20 19 20 21 23 26 29 30 31 31 32 34 34 35 36 38 39 42 46 53 61 71 77 82
29 29 28 24 19 18 13 12 12 12 14 13 14 15 17 17 14 11 14 16 17 18 18 18 19 23 26 28 29 29 30 32 33 35 36 37 39 40 43 47 54 61 70 76
30 29 26 19 18 17 13 13 14 13 14 13 15 16 16 15 14 14 15 16 17 17 16 16 17 20 22 25 26 26 27 29 30 33 38 41 42 43 44 48 50 54 60 69
28 24 17 11 16 19 15 16 14 14 14 15 16 16 14 13 14 15 16 16 16 16 17 17 18 18 18 20 21 23 26 27 29 31 32 35 37 39 41 45 49 51 55 61
24 18 13 17 20 20 17 17 15 17 17 17 18 17 17 18 19 17 17 16 16 18 18 18 17 17 18 20 23 26 27 31 33 35 40 41 43 46 48 50 52 53 55 57
20 18 19 21 20 20 18 19 19 18 18 18 17 17 18 17 18 18 19 18 18 18 18 18 20 23 22 20 18 18 20 24 28 30 31 35 39 43 46 49 51 53 55 59
23 24 25 26 25 20 24 21 18 19 19 17 16 16 16 14 12 13 13 15 17 19 20 19 17 14 13 13 13 14 15 18 21 24 27 30 34 37 41 46 51 56 60 64
31 33 33 32 23 28 25 22 21 20 19 15 15 14 14 12 12 12 12 12 12 12 11 9 9 9 10 12 12 12 13 15 19 23 27 31 34 39 43 47 50 54 58 61
32 28 19 25 33 30 27 25 22 18 17 19 18 18 15 15 15 15 15 14 14 14 14 14 13 11 8 8 12 16 19 21 22 24 28 32 35 38 42 46 49 52 55 58

GFSNW_250_spd_090.txt.gz
Wind_Speed
110 108 112 109 109 108 107 102 101 97 91 89 85 79 73 72 66 62 58 51 46 39 40 37 36 42 43 44 49 53 56 60 62 72 77 75 72 71 77 81 75 73 68 65
103 100 105 103 97 96 95 95 90 87 86 83 76 70 69 65 61 53 48 46 41 36 36 34 35 38 42 44 47 52 55 60 61 65 71 71 72 71 72 70 68 66 64 64
95 95 95 91 91 89 86 84 85 84 80 74 69 68 63 57 49 46 41 38 34 33 32 32 33 37 41 45 49 53 55 59 60 62 64 69 71 71 70 68 66 63 61 60
88 84 82 83 81 79 79 80 80 78 73 68 67 61 56 49 42 37 33 30 28 30 31 33 32 37 43 48 52 56 59 60 58 58 59 62 63 64 63 62 62 59 60 57
77 73 72 74 75 75 77 78 76 69 65 64 60 55 49 41 35 31 28 25 25 29 29 31 30 37 41 44 49 51 54 56 56 58 60 61 59 58 58 56 53 49 47 42
67 67 69 71 72 71 71 70 67 64 62 56 53 47 41 36 32 27 22 21 21 24 28 29 30 32 37 41 44 47 51 53 51 53 55 55 55 55 54 49 44 39 40 39
65 66 70 71 69 66 63 63 60 59 55 52 46 41 34 32 28 24 18 17 19 21 25 28 28 31 36 38 39 36 44 45 47 48 51 54 55 55 51 47 42 42 42 40
66 67 66 66 63 60 58 57 54 51 50 48 41 34 32 28 24 19 13 15 17 19 24 27 26 29 29 31 33 27 33 42 47 47 47 52 57 55 54 52 48 46 43 41
64 63 63 61 59 55 51 53 49 49 46 42 33 32 28 22 19 16 13 14 17 20 21 23 24 27 28 31 33 34 36 40 46 47 45 48 54 55 55 53 52 48 45 42
60 60 58 55 54 50 48 48 47 45 43 35 30 28 23 15 14 12 12 15 18 21 21 23 27 29 33 37 39 43 44 44 44 48 47 46 51 52 53 53 53 51 49 47
58 54 53 51 47 45 44 44 45 40 40 30 25 24 20 11 12 12 12 14 19 22 24 26 28 31 36 39 42 44 47 47 49 50 50 50 47 49 51 50 51 49 49 49
54 53 48 45 43 41 41 42 42 34 34 27 23 21 18 10 13 15 13 14 17 23 26 29 31 34 35 39 41 42 42 43 47 51 48 45 42 43 45 46 43 43 43 43
50 45 43 41 40 39 39 40 39 31 27 24 23 18 15 12 11 14 14 15 16 21 27 26 27 31 33 37 39 35 37 38 40 42 43 41 40 38 41 42 42 42 45 47
44 42 40 38 39 37 36 36 35 29 25 20 21 17 15 12 12 13 14 16 18 20 22 26 28 28 28 28 27 27 31 36 40 39 38 38 38 37 39 41 42 45 50 54
42 40 37 37 37 33 34 34 32 27 22 18 19 16 14 13 13 12 14 16 18 21 23 25 26 26 27 26 30 32 34 35 35 35 33 33 34 36 39 43 46 49 55 57
41 38 36 36 35 31 32 31 30 24 20 17 15 15 15 15 16 13 14 16 20 22 22 23 24 23 25 28 30 32 32 32 34 34 33 34 36 37 42 46 50 53 57 61
41 37 35 36 33 31 29 29 27 21 19 16 14 14 15 15 15 13 14 15 16 17 21 23 22 22 25 28 30 32 32 34 36 34 34 36 37 38 41 46 51 54 58 62
40 37 35 35 31 28 28 26 24 19 17 14 13 13 13 14 13 13 14 15 16 16 17 19 22 25 27 30 31 31 32 33 32 33 33 33 35 38 41 46 51 55 60 63
39 36 35 33 28 26 27 23 23 17 15 12 12 14 15 14 13 11 10 13 15 15 17 19 22 23 25 26 27 28 28 28 27 27 29 32 34 37 39 43 48 54 60 65
36 35 35 30 24 27 23 23 23 16 13 10 11 15 15 14 9 8 11 12 13 15 17 18 19 21 22 23 25 24 25 26 26 27 28 29 32 35 39 43 46 50 54 58
35 35 31 23 21 26 22 22 20 14 13 12 14 15 13 12 11 13 14 15 14 15 17 17 19 20 20 21 22 23 25 26 27 29 31 31 32 34 35 37 40 46 51 54
34 29 22 18 21 27 23 21 18 17 14 14 15 13 12 13 15 15 16 18 17 17 18 19 19 20 20 19 21 22 24 26 28 30 32 35 35 37 38 38 38 40 43 47
26 24 20 19 26 27 23 18 21 18 16 16 15 14 14 18 18 19 19 19 20 20 20 21 22 22 20 19 20 22 24 27 30 33 34 36 39 40 43 45 48 50 52 53
25 24 22 23 31 29 19 25 22 18 17 15 15 13 16 18 18 19 20 20 21 22 23 23 24 26 26 25 24 25 26 26 26 27 29 32 35 39 41 44 48 50 52 55
25 25 26 33 34 19 26 25 22 19 17 15 15 15 16 16 16 16 18 19 19 20 22 22 21 18 16 16 16 17 19 21 24 26 28 32 36 39 43 46 48 50 52 55
27 31 36 38 27 27 27 25 22 20 17 16 15 15 15 15 15 16 16 15 14 12 14 15 16 16 17 18 20 21 22 23 24 25 27 29 33 36 40 43 46 49 52 55
35 38 37 30 28 28 28 26 23 19 18 17 18 18 18 18 18 18 19 20 19 18 18 18 19 18 17 17 17 17 17 18 19 22 25 29 32 35 39 42 46 49 51 54

GFSNW_250_spd_096.txt.gz
Wind_Speed
74 76 81 81 79 86 86 89 95 100 105 109 113 110 109 109 112 110 108 98 93 84 73 71 67 58 47 40 33 30 30 30 29 33 35 37 41 44 43 44 45 49 59 58
78 78 77 79 79 73 78 87 88 96 100 104 106 105 108 107 105 103 95 87 80 71 65 61 54 47 37 30 23 23 23 25 27 29 30 33 36 41 44 45 44 48 64 61
69 73 70 68 60 65 70 76 83 93 97 97 99 99 99 99 95 89 81 76 69 62 54 48 45 38 26 22 17 18 24 30 30 30 36 39 45 48 49 51 49 55 62 72
71 68 67 69 69 67 68 73 78 82 86 88 90 91 89 87 80 74 70 66 59 52 45 38 39 30 18 17 16 23 29 34 35 34 40 44 55 57 57 59 57 60 64 71
69 57 60 69 73 66 68 69 72 75 78 80 80 81 78 73 72 65 61 57 51 42 36 32 30 20 13 19 19 26 31 37 40 45 47 54 62 70 69 66 57 55 65 60
74 71 70 75 69 65 68 70 72 70 73 74 74 71 69 68 61 58 55 49 43 35 29 24 22 16 14 18 21 28 31 35 39 45 50 55 62 67 64 59 59 59 56 50
66 65 70 64 61 60 63 64 68 70 69 68 69 66 65 58 55 52 50 44 37 29 23 19 18 16 15 19 21 26 30 32 42 41 39 51 55 57 62 65 64 62 60 57
54 56 53 55 55 56 57 60 65 66 67 64 62 59 57 53 50 50 46 38 32 25 20 17 15 16 16 17 21 24 27 27 33 36 40 43 48 53 60 60 61 59 60 60
48 49 49 51 53 56 58 61 63 64 60 57 55 53 51 48 46 45 39 34 29 21 18 15 14 12 15 20 23 26 29 32 35 37 39 45 50 52 60 60 58 56 56 55
45 46 47 50 52 55 57 59 59 57 54 51 50 49 47 45 42 38 32 29 24 19 15 13 14 15 16 19 23 28 28 28 31 36 39 43 47 51 59 57 57 57 53 51
45 49 50 50 51 53 52 53 53 51 49 47 45 45 45 42 38 32 27 25 20 15 15 13 12 15 17 19 23 28 26 28 30 35 39 42 45 49 52 56 60 59 56 54
47 49 48 49 49 49 50 50 49 48 45 44 43 44 41 38 34 26 22 21 18 12 16 17 17 18 21 23 26 26 29 26 28 36 38 40 44 46 49 53 58 62 59 56
48 48 49 49 50 52 47 48 47 43 42 40 41 39 38 33 28 22 18 19 16 13 18 17 17 19 20 24 26 26 28 28 32 35 39 41 44 49 49 49 52 57 59 59
51 50 51 49 48 46 44 44 41 40 40 40 36 36 34 28 22 19 16 16 14 15 20 19 18 19 22 23 20 24 25 26 31 32 36 40 42 39 41 43 45 49 53 56
50 48 47 44 43 41 42 39 37 39 38 36 33 32 29 24 19 16 13 14 12 16 19 20 18 18 20 21 21 24 24 26 28 31 35 36 32 35 35 39 42 42 45 51
46 44 43 42 39 39 39 36 36 37 35 33 31 29 26 20 16 13 12 12 13 15 19 20 19 18 20 21 23 23 24 24 25 26 27 26 30 30 31 32 36 40 41 43
41 40 40 38 37 38 36 33 33 34 33 30 28 26 21 15 13 12 12 12 12 13 15 18 19 20 21 21 23 24 24 24 22 19 23 28 28 28 29 30 33 36 38 40
40 39 37 36 37 36 33 32 32 32 30 25 24 24 18 13 11 11 10 10 12 13 13 14 16 19 20 21 23 25 26 24 22 22 24 24 26 26 29 31 31 34 38 40
39 39 38 37 35 33 34 30 31 30 29 23 22 20 15 10 10 10 10 11 13 14 13 13 14 15 18 20 22 21 19 19 19 20 23 24 26 25 25 26 30 34 38 40
40 37 36 37 35 33 34 31 28 28 27 23 20 18 13 9 11 11 10 11 12 13 15 15 14 15 15 16 16 15 16 17 18 20 21 23 25 25 27 28 30 33 37 40
39 38 38 39 34 32 34 31 27 27 27 20 17 17 11 9 12 12 12 12 14 16 16 16 14 13 15 15 15 14 17 17 18 20 22 23 24 24 26 27 28 30 33 37
41 40 39 37 33 34 37 30 26 26 26 18 15 14 10 11 13 13 13 14 16 17 17 16 16 16 15 14 15 17 18 19 19 20 21 22 23 24 25 27 29 30 33 36
41 39 38 35 33 39 37 26 24 26 22 16 15 13 11 13 14 14 13 16 18 19 18 16 16 16 16 16 16 17 18 19 20 21 21 22 24 27 29 30 31 32 33 34
40 39 37 33 38 46 32 23 23 22 19 15 13 13 14 15 14 13 14 17 19 19 18 17 16 16 16 17 17 18 18 18 20 21 24 25 27 28 28 29 30 32 34 36
38 36 35 38 47 35 20 20 22 20 15 15 14 15 15 14 14 15 15 17 18 19 19 18 17 16 16 17 18 18 18 18 20 22 22 22 23 25 27 29 32 34 37 39
33 35 40 42 36 22 21 22 21 17 16 14 16 16 15 14 14 16 15 15 16 16 17 14 13 13 13 13 14 16 18 18 16 16 17 19 21 24 27 29 32 35 38 41
35 40 38 30 22 22 23 24 21 17 16 16 17 17 16 15 15 15 15 12 14 14 12 10 10 11 12 12 11 10 10 10 12 13 15 18 22 26 29 32 36 39 42 46

GFSNW_250_spd_099.txt.gz
Wind_Speed
43 40 42 48 53 54 56 59 61 63 65 69 77 81 85 87 91 97 101 105 106 105 97 94 83 75 66 61 55 46 41 31 26 25 25 28 29 33 35 41 42 44 45 45
47 48 47 45 48 51 54 60 64 67 70 70 74 76 75 83 90 94 94 94 95 91 86 72 66 63 57 48 41 35 31 26 22 21 25 27 26 29 38 42 47 49 52 51
50 54 52 47 51 54 56 58 63 65 69 70 60 66 72 76 79 81 85 86 82 72 65 60 58 53 42 38 34 29 24 25 24 27 28 32 33 38 40 44 48 56 58 64
54 53 52 53 51 52 55 59 63 66 67 65 67 68 69 71 74 76 76 72 64 58 55 52 45 37 34 32 29 26 23 23 26 30 30 32 34 38 44 48 53 61 66 61
53 50 53 52 55 56 57 60 56 60 61 60 64 66 69 70 70 68 66 62 57 53 49 40 32 28 28 27 26 22 20 23 32 35 36 38 39 43 49 56 58 59 65 63
52 50 53 50 54 59 61 59 51 56 61 63 66 69 69 69 64 61 61 57 52 47 40 28 24 21 22 22 24 20 21 26 30 37 41 43 46 53 56 58 56 56 57 62
55 57 57 58 61 61 58 58 63 66 65 65 65 66 64 62 57 62 58 50 43 38 29 23 18 17 20 21 22 21 21 25 27 40 43 48 50 56 56 56 53 50 48 52
58 57 60 61 62 66 62 61 60 60 58 61 60 59 58 56 56 55 50 41 37 30 23 18 13 16 20 23 22 23 24 24 26 36 40 41 51 55 54 53 53 51 50 54
53 55 53 51 48 46 46 49 50 53 53 53 55 56 55 53 47 44 44 35 34 25 19 13 12 14 18 22 25 26 26 26 26 25 31 44 48 55 58 53 53 54 55 53
47 47 42 39 38 38 40 44 46 47 49 50 51 51 50 45 38 40 39 34 28 20 13 12 14 16 22 26 27 27 28 26 27 27 23 26 45 52 54 57 58 56 56 56
45 41 39 38 37 37 39 41 44 46 48 48 48 44 41 37 36 36 37 31 23 17 13 13 15 19 24 25 26 27 26 29 29 28 30 32 33 42 49 54 60 59 59 60
38 38 41 39 39 40 42 44 45 44 46 44 41 38 36 35 35 34 34 25 20 15 13 16 17 21 23 26 29 31 31 30 34 33 34 33 34 40 45 50 57 63 61 60
40 41 40 38 39 39 39 41 42 41 41 37 36 35 34 34 33 31 26 24 17 15 14 18 18 22 21 22 25 27 29 30 31 33 37 38 39 40 42 48 53 58 62 60
42 43 41 41 41 40 40 41 41 41 37 34 33 33 34 33 31 28 21 21 17 15 16 18 19 20 22 23 22 24 24 28 29 31 33 37 38 39 43 49 50 50 52 56
46 44 42 44 43 42 41 41 39 36 33 31 32 32 32 31 28 24 19 20 17 15 17 17 19 20 22 22 21 19 20 22 23 26 27 30 34 39 44 44 43 43 45 49
48 46 43 42 40 40 41 39 37 33 30 30 30 31 30 28 25 20 19 18 15 16 16 16 18 20 21 22 21 22 22 23 25 28 32 33 35 35 33 34 35 41 43 46
43 42 41 39 38 39 35 34 33 30 30 29 28 27 29 24 21 17 16 15 13 15 14 14 17 22 24 23 20 20 22 23 23 23 26 28 26 26 30 31 34 36 40 44
42 41 39 38 35 33 31 31 29 29 29 27 27 23 26 22 18 15 14 13 13 14 13 15 19 21 22 21 21 20 21 19 16 14 14 16 19 23 27 28 30 32 36 40
37 36 35 33 33 30 29 28 27 29 27 27 26 22 20 18 16 15 13 12 13 13 15 17 18 19 19 20 20 19 17 16 17 19 19 21 24 23 23 26 28 30 33 35
38 36 34 33 31 30 28 26 26 28 27 26 25 21 18 15 14 13 12 12 13 13 16 18 19 18 19 18 18 17 15 15 18 20 21 22 22 23 24 26 27 29 31 34
37 35 33 32 30 30 28 26 26 27 27 24 24 19 15 13 14 13 13 12 13 13 15 17 18 19 19 19 18 19 20 20 20 21 21 20 19 20 21 22 24 25 26 29
36 35 34 31 29 29 31 26 24 27 26 23 22 17 14 12 15 13 12 13 14 14 15 16 18 18 18 18 19 19 18 16 16 16 15 15 15 17 18 19 21 23 23 24
38 35 34 30 29 35 33 24 23 28 22 23 18 16 14 14 15 13 12 13 14 15 14 14 15 15 15 16 16 15 15 14 13 13 14 14 15 16 19 19 20 23 26 28
37 34 32 30 34 42 29 22 25 25 23 22 15 14 16 15 14 13 11 12 14 15 15 14 14 14 15 16 14 14 12 11 12 12 14 16 15 15 18 21 23 25 27 30
35 33 33 35 38 39 26 24 24 24 23 18 14 16 16 14 13 13 12 11 12 14 14 15 15 14 13 12 12 11 11 12 11 11 10 11 13 16 19 21 23 25 27 30
35 33 36 39 39 35 22 22 25 24 22 15 16 17 15 13 14 14 12 12 13 14 14 12 13 13 13 12 9 9 8 8 8 9 10 12 15 15 16 19 22 26 29 33
34 37 41 39 36 24 21 23 24 22 17 16 17 17 16 15 15 14 13 12 11 12 10 8 8 8 9 9 9 7 8 10 9 9 8 9 12 15 19 22 27 31 33 37

GFSNW_250_spd_102.txt.gz
Wind_Speed
53 52 52 49 50 50 56 55 55 56 57 55 56 56 57 60 61 63 67 71 74 76 80 79 77 72 68 68 64 61 56 52 48 43 35 28 23 22 27 32 35 37 40 39
44 46 41 42 43 43 42 43 46 45 47 46 48 51 54 57 60 63 69 72 75 74 73 67 66 63 61 59 55 52 46 42 38 32 26 25 26 32 40 44 44 46 48 46
43 43 42 42 41 40 39 40 39 39 37 43 49 50 53 55 60 64 67 68 70 71 65 57 57 56 54 50 47 43 36 31 27 23 22 23 26 38 43 42 47 51 54 58
44 43 43 40 39 39 40 38 37 41 44 45 46 47 51 54 58 60 64 66 68 61 53 50 48 47 46 43 37 31 26 23 20 19 21 26 33 37 44 44 48 54 62 59
44 43 45 43 43 45 44 43 42 38 40 42 45 49 52 51 53 58 62 64 55 48 45 44 46 44 38 32 28 25 22 19 20 24 29 35 36 40 46 49 55 62 64 67
43 41 44 41 38 42 42 44 43 42 42 45 48 52 48 51 60 62 58 54 48 44 40 40 42 37 28 25 25 22 20 21 25 29 33 37 41 46 55 58 58 63 62 60
44 42 40 37 38 39 39 37 38 41 43 45 45 49 53 62 63 58 55 50 42 36 37 36 34 27 22 22 22 21 19 22 26 32 35 38 43 49 56 60 60 59 59 61
38 40 40 34 39 37 38 39 40 42 45 50 55 62 59 59 55 51 48 45 36 32 30 28 28 23 21 20 20 21 19 23 27 36 39 45 48 52 57 61 63 61 60 58
38 37 37 37 40 41 41 42 43 47 53 55 57 56 51 50 49 46 43 40 35 27 27 23 25 24 18 19 21 23 21 28 28 36 42 46 48 51 53 57 62 63 62 58
43 41 42 44 47 45 45 45 45 45 42 42 43 43 44 43 45 44 38 34 30 22 23 20 23 24 21 21 23 25 25 27 28 27 37 44 44 48 50 53 53 55 58 57
43 41 40 39 37 35 32 34 34 32 34 37 38 40 42 43 39 38 33 28 24 22 20 21 21 27 23 23 26 27 23 25 26 26 26 37 44 48 50 49 49 50 52 54
40 39 35 34 32 30 31 32 32 34 35 38 39 40 38 36 34 31 30 27 21 19 19 18 22 26 22 27 27 29 29 29 29 30 29 31 32 41 48 49 51 52 52 53
41 34 33 34 32 31 33 33 33 34 38 37 34 32 31 31 30 27 27 25 23 17 19 18 23 25 27 28 29 32 32 33 31 31 32 32 30 29 29 38 47 51 49 52
35 34 32 29 30 32 36 35 33 34 33 34 33 30 30 28 27 27 26 24 21 18 20 19 22 26 26 29 29 31 31 33 33 33 33 33 32 33 36 37 40 47 55 61
33 32 33 31 32 36 38 36 36 36 36 32 29 28 29 28 27 26 23 22 18 17 19 20 21 24 26 27 27 28 29 29 34 37 36 36 37 39 40 44 48 52 53 49
36 35 34 35 35 35 35 35 32 31 32 29 27 26 27 29 27 24 22 20 16 15 18 20 20 23 23 24 28 28 28 26 25 31 34 34 33 35 39 41 47 46 42 42
37 36 38 39 37 36 36 33 32 31 29 27 25 24 25 28 26 23 21 17 15 15 17 18 19 22 22 22 24 27 29 31 33 33 35 35 38 38 37 38 39 38 38 39
42 41 41 40 37 35 33 32 31 29 27 23 24 22 24 25 24 20 17 15 15 16 15 18 20 23 21 21 24 25 26 27 28 32 33 35 36 31 31 32 34 33 34 37
43 41 38 37 36 34 32 29 28 27 23 21 22 21 21 24 22 18 15 14 14 14 14 17 19 19 18 20 23 27 25 22 21 20 20 23 24 27 27 29 28 29 29 30
38 37 35 34 33 30 28 28 28 22 20 22 20 19 19 22 20 17 15 13 12 12 13 14 15 18 21 22 22 22 24 26 26 26 27 28 25 23 23 23 22 22 24 27
36 34 33 32 30 28 29 28 24 20 22 21 19 19 18 20 20 15 13 11 10 10 11 12 15 18 19 20 21 22 22 23 23 24 24 21 18 17 17 19 21 21 21 23
35 33 31 30 31 30 26 22 21 23 21 20 22 18 17 19 19 15 11 10 8 10 11 14 16 18 20 21 20 20 19 18 17 16 17 16 15 15 17 18 18 18 20 23
31 31 30 30 31 29 21 19 25 23 19 22 22 19 18 19 18 13 11 9 8 9 12 15 15 17 18 19 18 18 18 18 18 16 15 15 14 13 13 13 15 18 21 23
32 31 29 29 32 27 19 22 25 22 21 23 23 18 18 19 16 12 10 9 9 9 11 14 15 18 20 21 19 18 18 16 14 13 13 13 12 12 14 16 17 19 21 24
34 32 31 32 33 25 22 22 24 23 23 22 24 19 19 17 14 12 10 11 10 10 11 14 14 16 17 16 15 13 13 14 13 12 10 11 13 14 14 15 16 19 21 23
33 34 36 35 32 27 21 22 23 25 25 24 22 18 20 16 14 13 12 13 13 11 10 11 12 14 15 15 14 14 13 12 12 14 12 12 12 10 11 12 15 18 21 24
37 40 38 34 31 25 23 25 26 27 25 23 19 19 20 16 15 14 14 15 14 14 12 11 11 13 14 14 14 14 13 13 12 10 9 8 8 9 10 14 18 20 24 29

GFSNW_250_spd_105.txt.gz
Wind_Speed
54 54 54 54 54 54 53 54 53 53 56 57 58 57 58 62 63 62 60 58 56 53 55 58 63 68 68 70 69 74 71 60 52 52 50 47 44 38 35 35 34 33 34 34
45 45 47 46 46 45 47 45 44 46 46 46 46 47 48 50 48 46 45 45 47 51 57 61 66 66 65 65 69 65 54 48 47 45 41 36 31 31 33 36 37 38 39 37
41 39 39 38 39 39 36 39 39 44 42 41 43 40 38 37 37 40 43 45 49 52 56 59 60 60 61 59 56 52 48 44 41 33 29 27 28 32 35 37 40 41 44 48
37 38 39 37 37 36 39 40 41 41 41 41 34 34 33 35 39 40 42 47 49 52 52 53 56 53 52 50 47 44 40 35 30 25 24 26 28 34 38 43 42 47 48 52
37 33 34 34 38 37 39 40 39 39 37 35 31 30 34 39 41 40 43 48 48 48 52 47 50 47 46 42 39 36 31 27 23 18 20 23 27 28 33 39 46 48 51 52
41 40 38 38 39 40 44 42 36 34 32 30 31 34 37 41 41 43 46 47 48 49 49 46 45 41 39 37 35 30 25 21 17 16 24 30 31 39 39 47 49 49 54 56
43 45 43 45 41 40 35 34 34 34 34 35 37 39 38 39 41 42 45 50 49 44 42 41 40 37 34 34 30 24 19 17 15 20 27 37 43 45 48 49 50 50 55 55
46 46 46 44 37 40 36 32 27 32 33 32 32 32 36 37 44 50 52 44 41 38 36 35 35 36 31 29 25 19 18 14 18 23 31 39 47 49 55 51 51 53 54 56
43 44 43 40 30 27 25 25 26 28 28 29 32 35 40 46 50 48 44 38 35 33 35 32 33 32 26 24 22 19 16 16 20 25 32 42 47 54 56 55 52 52 53 55
34 34 33 30 28 25 27 27 30 30 31 34 39 43 44 43 40 39 38 37 33 29 31 31 31 25 24 20 21 22 18 18 22 25 32 39 45 56 57 58 57 55 54 54
31 31 29 28 28 29 32 32 32 38 40 36 34 35 34 35 37 39 38 35 29 27 31 27 27 23 24 20 21 23 20 17 18 23 23 36 40 49 58 59 59 57 56 55
35 32 31 29 32 32 31 30 30 28 24 25 29 29 31 34 37 37 34 29 27 26 27 23 23 23 22 23 25 25 21 19 19 21 23 27 37 45 53 58 58 55 56 54
36 36 33 32 29 25 26 28 23 22 25 26 27 31 34 34 33 32 31 27 25 24 24 21 21 24 23 24 28 28 25 22 24 22 24 25 29 36 44 48 50 51 53 53
40 37 32 29 23 24 23 23 24 25 25 26 29 31 34 33 31 28 27 27 25 22 22 20 20 24 24 24 30 30 30 28 26 26 27 29 28 29 36 44 44 44 48 49
40 33 31 26 25 22 21 22 23 26 27 28 29 32 31 30 28 27 25 25 24 21 20 19 20 23 25 27 29 32 32 33 30 31 31 32 32 33 34 37 37 37 40 40
37 35 30 25 23 23 23 26 25 27 28 29 29 28 26 28 27 25 24 25 23 20 18 18 20 21 24 26 29 30 32 34 34 36 35 34 35 35 38 40 42 41 46 48
37 35 30 27 27 28 27 26 28 27 28 25 26 24 25 27 27 26 24 23 20 17 17 18 18 21 23 25 28 29 31 33 36 34 34 37 39 37 36 36 37 40 46 45
33 32 29 29 31 31 27 28 27 28 28 27 25 23 24 26 28 26 23 20 17 16 16 18 18 22 23 25 27 27 29 32 34 35 37 37 38 40 41 36 37 37 34 33
35 32 30 30 30 30 31 28 29 29 27 25 24 23 24 24 27 24 21 16 14 13 13 16 18 18 22 25 27 27 28 31 32 33 35 36 36 37 35 30 31 32 32 32
34 33 32 33 34 33 30 30 29 25 23 23 23 24 25 24 25 20 17 14 12 10 11 14 15 16 19 24 24 25 26 27 26 29 30 30 29 29 28 31 32 31 28 26
36 37 36 33 32 33 33 29 25 22 22 23 22 25 24 24 24 19 14 12 10 10 10 12 15 16 19 22 22 22 21 22 25 29 29 28 26 26 24 23 24 24 22 22
36 33 33 30 29 30 28 25 23 23 23 20 22 24 23 23 23 18 12 10 9 9 10 11 12 13 14 15 18 20 22 24 25 26 25 24 21 20 20 20 19 19 21 22
34 35 33 30 29 27 24 25 25 25 22 21 22 23 21 22 22 16 11 9 10 9 9 10 10 10 11 12 16 19 20 20 20 20 19 19 19 19 18 18 19 21 22 22
34 34 32 31 30 25 25 28 27 24 22 22 23 22 20 21 20 14 11 10 10 9 9 8 10 11 11 12 14 16 18 19 19 19 19 18 18 19 19 19 19 18 18 19
35 34 33 31 26 25 27 28 27 23 22 24 24 23 19 19 18 13 11 11 10 10 10 11 11 12 12 13 15 16 15 16 18 20 20 20 19 18 17 16 16 16 17 19
35 36 36 32 28 26 27 28 26 25 24 24 24 23 20 19 16 13 12 13 12 12 12 13 12 13 15 15 17 18 20 21 21 20 20 19 18 15 15 15 14 15 16 20
40 40 37 32 29 28 27 27 27 27 25 25 25 21 18 17 15 13 14 15 15 14 16 16 14 16 17 18 19 20 20 19 19 19 16 15 15 15 14 13 14 16 18 22